Time,TemperatureF,DewpointF,PressureIn,WindDirection,WindDirectionDegrees,WindSpeedMPH,WindSpeedGustMPH,Humidity,HourlyPrecipIn,Conditions,Clouds,dailyrainin,SoftwareType,DateUTC
2013-02-23 00:00:00,29.4,16.5,30.27,SE,146,0.0,2.0,58,0.00,,---,0.00,VWS V13.01,2013-02-23 05:00:00,
2013-02-23 00:05:00,29.1,16.6,30.27,SE,146,0.0,3.0,59,0.00,,---,0.00,VWS V13.01,2013-02-23 05:05:00,
2013-02-23 00:10:00,29.0,16.9,30.27,SSE,150,0.0,4.0,60,0.00,,---,0.00,VWS V13.01,2013-02-23 05:10:00,
2013-02-23 00:15:00,29.0,17.2,30.27,East,99,1.0,4.0,61,0.00,,---,0.00,VWS V13.01,2013-02-23 05:15:00,
2013-02-23 00:20:00,29.0,17.2,30.27,East,101,0.0,4.0,61,0.00,,---,0.00,VWS V13.01,2013-02-23 05:20:00,
2013-02-23 00:25:00,28.8,17.1,30.27,East,101,0.0,4.0,61,0.00,,---,0.00,VWS V13.01,2013-02-23 05:25:00,
2013-02-23 00:26:00,28.8,17.1,30.27,East,101,0.0,0.0,61,0.00,,---,0.00,VWS V13.01,2013-02-23 05:26:00,
2013-02-23 00:30:00,28.8,17.1,30.27,East,101,0.0,2.0,61,0.00,,---,0.00,VWS V13.01,2013-02-23 05:30:00,
2013-02-23 00:31:00,28.8,17.1,30.27,East,101,0.0,2.0,61,0.00,,---,0.00,VWS V13.01,2013-02-23 05:31:00,
2013-02-23 00:35:00,28.7,17.3,30.27,East,101,1.0,2.0,62,0.00,,---,0.00,VWS V13.01,2013-02-23 05:35:00,
2013-02-23 00:36:00,28.7,17.3,30.27,East,101,1.0,2.0,62,0.00,,---,0.00,VWS V13.01,2013-02-23 05:36:00,
2013-02-23 00:40:00,28.5,17.1,30.27,SE,146,1.0,7.0,62,0.00,,---,0.00,VWS V13.01,2013-02-23 05:40:00,
2013-02-23 00:41:00,28.5,17.1,30.27,SE,146,0.0,7.0,62,0.00,,---,0.00,VWS V13.01,2013-02-23 05:41:00,
2013-02-23 00:45:00,28.5,17.5,30.27,South,172,4.0,7.0,63,0.00,,---,0.00,VWS V13.01,2013-02-23 05:45:00,
2013-02-23 00:46:00,28.5,17.5,30.27,SSE,167,2.0,7.0,63,0.00,,---,0.00,VWS V13.01,2013-02-23 05:46:00,
2013-02-23 00:50:00,28.7,17.7,30.27,ESE,117,0.0,7.0,63,0.00,,---,0.00,VWS V13.01,2013-02-23 05:50:00,
2013-02-23 00:51:00,28.7,17.7,30.27,ESE,117,0.0,7.0,63,0.00,,---,0.00,VWS V13.01,2013-02-23 05:51:00,
2013-02-23 00:52:00,28.7,18.1,30.27,SSE,159,5.0,7.0,64,0.00,,---,0.00,VWS V13.01,2013-02-23 05:52:00,
2013-02-23 00:55:00,28.8,17.8,30.26,ESE,115,0.0,0.0,63,0.00,,---,0.00,VWS V13.01,2013-02-23 05:55:00,
2013-02-23 00:56:00,28.8,17.8,30.26,ESE,115,0.0,0.0,63,0.00,,---,0.00,VWS V13.01,2013-02-23 05:56:00,
2013-02-23 00:57:00,28.8,17.8,30.26,ESE,115,0.0,0.0,63,0.00,,---,0.00,VWS V13.01,2013-02-23 05:57:00,
2013-02-23 01:00:00,29.0,18.0,30.26,ESE,108,1.0,5.0,63,0.00,,---,0.00,VWS V13.01,2013-02-23 06:00:00,
2013-02-23 01:01:00,29.0,18.0,30.26,ESE,105,4.0,5.0,63,0.00,,---,0.00,VWS V13.01,2013-02-23 06:01:00,
2013-02-23 01:02:00,29.0,18.4,30.26,SSE,148,3.0,6.0,64,0.00,,---,0.00,VWS V13.01,2013-02-23 06:02:00,
2013-02-23 01:06:00,29.1,18.1,30.26,SE,143,0.0,6.0,63,0.00,,---,0.00,VWS V13.01,2013-02-23 06:06:00,
2013-02-23 01:07:00,29.1,18.1,30.26,SE,127,0.0,6.0,63,0.00,,---,0.00,VWS V13.01,2013-02-23 06:07:00,
2013-02-23 01:11:00,29.1,18.5,30.26,ESE,103,2.0,6.0,64,0.00,,---,0.00,VWS V13.01,2013-02-23 06:11:00,
2013-02-23 01:12:00,29.0,18.4,30.26,SE,141,6.0,6.0,64,0.00,,---,0.00,VWS V13.01,2013-02-23 06:12:00,
2013-02-23 01:16:00,29.1,18.1,30.26,SE,141,8.0,9.0,63,0.00,,---,0.00,VWS V13.01,2013-02-23 06:16:00,
2013-02-23 01:18:00,29.1,18.5,30.26,SE,129,1.0,9.0,64,0.00,,---,0.00,VWS V13.01,2013-02-23 06:18:00,
2013-02-23 01:21:00,29.1,18.5,30.26,SSE,154,11.0,11.0,64,0.00,,---,0.00,VWS V13.01,2013-02-23 06:21:00,
2013-02-23 01:22:00,29.1,18.5,30.26,SSE,156,5.0,11.0,64,0.00,,---,0.00,VWS V13.01,2013-02-23 06:22:00,
2013-02-23 01:24:00,29.1,18.5,30.26,SSE,157,2.0,11.0,64,0.00,,---,0.00,VWS V13.01,2013-02-23 06:24:00,
2013-02-23 01:26:00,29.1,18.5,30.26,SSE,156,2.0,5.0,64,0.00,,---,0.00,VWS V13.01,2013-02-23 06:26:00,
2013-02-23 01:27:00,29.1,18.5,30.26,SSE,156,0.0,5.0,64,0.00,,---,0.00,VWS V13.01,2013-02-23 06:27:00,
2013-02-23 01:29:00,29.3,18.6,30.26,SSE,156,3.0,5.0,64,0.00,,---,0.00,VWS V13.01,2013-02-23 06:29:00,
2013-02-23 01:31:00,29.3,18.6,30.26,South,169,1.0,5.0,64,0.00,,---,0.00,VWS V13.01,2013-02-23 06:31:00,
2013-02-23 01:32:00,29.3,18.6,30.26,SSE,155,5.0,5.0,64,0.00,,---,0.00,VWS V13.01,2013-02-23 06:32:00,
2013-02-23 01:34:00,29.3,18.6,30.26,ESE,119,2.0,7.0,64,0.00,,---,0.00,VWS V13.01,2013-02-23 06:34:00,
2013-02-23 01:36:00,29.3,18.6,30.26,ESE,119,0.0,7.0,64,0.00,,---,0.00,VWS V13.01,2013-02-23 06:36:00,
2013-02-23 01:37:00,29.1,18.5,30.26,ESE,119,0.0,7.0,64,0.00,,---,0.00,VWS V13.01,2013-02-23 06:37:00,
2013-02-23 01:39:00,29.1,18.5,30.26,ESE,119,0.0,7.0,64,0.00,,---,0.00,VWS V13.01,2013-02-23 06:39:00,
2013-02-23 01:42:00,29.1,18.5,30.26,ESE,103,3.0,7.0,64,0.00,,---,0.00,VWS V13.01,2013-02-23 06:42:00,
2013-02-23 01:44:00,29.1,18.5,30.26,ESE,122,0.0,7.0,64,0.00,,---,0.00,VWS V13.01,2013-02-23 06:44:00,
2013-02-23 01:47:00,29.1,18.8,30.26,ESE,114,2.0,7.0,65,0.00,,---,0.00,VWS V13.01,2013-02-23 06:47:00,
2013-02-23 01:50:00,29.1,18.8,30.26,ESE,118,3.0,7.0,65,0.00,,---,0.00,VWS V13.01,2013-02-23 06:50:00,
2013-02-23 01:52:00,29.1,18.8,30.26,SE,130,8.0,8.0,65,0.00,,---,0.00,VWS V13.01,2013-02-23 06:52:00,
2013-02-23 01:53:00,29.1,18.8,30.26,East,92,4.0,8.0,65,0.00,,---,0.00,VWS V13.01,2013-02-23 06:53:00,
2013-02-23 01:55:00,29.1,18.8,30.25,ESE,112,3.0,8.0,65,0.00,,---,0.00,VWS V13.01,2013-02-23 06:55:00,
2013-02-23 01:57:00,29.1,18.8,30.25,ESE,115,2.0,5.0,65,0.00,,---,0.00,VWS V13.01,2013-02-23 06:57:00,
2013-02-23 01:58:00,29.1,18.8,30.25,ESE,115,0.0,5.0,65,0.00,,---,0.00,VWS V13.01,2013-02-23 06:58:00,
2013-02-23 02:00:00,29.1,18.8,30.25,ESE,115,0.0,5.0,65,0.00,,---,0.00,VWS V13.01,2013-02-23 07:00:00,
2013-02-23 02:02:00,29.0,18.7,30.25,ESE,115,0.0,5.0,65,0.00,,---,0.00,VWS V13.01,2013-02-23 07:02:00,
2013-02-23 02:03:00,29.0,18.7,30.25,ESE,116,1.0,5.0,65,0.00,,---,0.00,VWS V13.01,2013-02-23 07:03:00,
2013-02-23 02:05:00,29.0,19.1,30.25,ESE,116,2.0,5.0,66,0.00,,---,0.00,VWS V13.01,2013-02-23 07:05:00,
2013-02-23 02:07:00,29.0,19.1,30.25,ESE,116,0.0,5.0,66,0.00,,---,0.00,VWS V13.01,2013-02-23 07:07:00,
2013-02-23 02:08:00,29.0,19.1,30.25,ESE,116,0.0,5.0,66,0.00,,---,0.00,VWS V13.01,2013-02-23 07:08:00,
2013-02-23 02:10:00,29.0,19.1,30.25,ESE,116,0.0,5.0,66,0.00,,---,0.00,VWS V13.01,2013-02-23 07:10:00,
2013-02-23 02:12:00,28.8,18.9,30.25,ESE,116,1.0,5.0,66,0.00,,---,0.00,VWS V13.01,2013-02-23 07:12:00,
2013-02-23 02:13:00,28.8,18.9,30.25,ESE,116,2.0,5.0,66,0.00,,---,0.00,VWS V13.01,2013-02-23 07:13:00,
2013-02-23 02:15:00,28.8,18.9,30.25,ESE,116,0.0,5.0,66,0.00,,---,0.00,VWS V13.01,2013-02-23 07:15:00,
2013-02-23 02:18:00,28.8,19.2,30.25,ESE,115,3.0,5.0,67,0.00,,---,0.00,VWS V13.01,2013-02-23 07:18:00,
2013-02-23 02:21:00,28.8,19.2,30.25,ESE,115,0.0,5.0,67,0.00,,---,0.00,VWS V13.01,2013-02-23 07:21:00,
2013-02-23 02:23:00,28.8,19.2,30.25,ESE,115,1.0,5.0,67,0.00,,---,0.00,VWS V13.01,2013-02-23 07:23:00,
2013-02-23 02:26:00,28.8,19.2,30.25,SE,136,5.0,5.0,67,0.00,,---,0.00,VWS V13.01,2013-02-23 07:26:00,
2013-02-23 02:28:00,29.0,19.4,30.25,SE,141,1.0,6.0,67,0.00,,---,0.00,VWS V13.01,2013-02-23 07:28:00,
2013-02-23 02:31:00,29.0,19.4,30.25,ESE,112,3.0,7.0,67,0.00,,---,0.00,VWS V13.01,2013-02-23 07:31:00,
2013-02-23 02:33:00,29.0,19.4,30.25,ESE,112,2.0,7.0,67,0.00,,---,0.00,VWS V13.01,2013-02-23 07:33:00,
2013-02-23 02:34:00,29.0,19.4,30.25,ESE,112,0.0,7.0,67,0.00,,---,0.00,VWS V13.01,2013-02-23 07:34:00,
2013-02-23 02:36:00,29.0,19.4,30.25,SE,130,2.0,7.0,67,0.00,,---,0.00,VWS V13.01,2013-02-23 07:36:00,
2013-02-23 02:38:00,29.0,19.4,30.25,SSE,148,2.0,7.0,67,0.00,,---,0.00,VWS V13.01,2013-02-23 07:38:00,
2013-02-23 02:41:00,29.0,19.4,30.25,SSE,148,3.0,7.0,67,0.00,,---,0.00,VWS V13.01,2013-02-23 07:41:00,
2013-02-23 02:43:00,29.0,19.4,30.25,SSE,156,5.0,7.0,67,0.00,,---,0.00,VWS V13.01,2013-02-23 07:43:00,
2013-02-23 02:44:00,29.0,19.4,30.25,SSE,160,2.0,7.0,67,0.00,,---,0.00,VWS V13.01,2013-02-23 07:44:00,
2013-02-23 02:46:00,29.1,19.5,30.25,SSE,162,4.0,7.0,67,0.00,,---,0.00,VWS V13.01,2013-02-23 07:46:00,
2013-02-23 02:48:00,29.1,19.5,30.25,SSE,161,0.0,7.0,67,0.00,,---,0.00,VWS V13.01,2013-02-23 07:48:00,
2013-02-23 02:49:00,29.1,19.9,30.25,SSE,154,4.0,7.0,68,0.00,,---,0.00,VWS V13.01,2013-02-23 07:49:00,
2013-02-23 02:51:00,29.1,19.9,30.25,East,94,5.0,7.0,68,0.00,,---,0.00,VWS V13.01,2013-02-23 07:51:00,
2013-02-23 02:53:00,29.1,19.9,30.25,SSE,152,1.0,7.0,68,0.00,,---,0.00,VWS V13.01,2013-02-23 07:53:00,
2013-02-23 02:54:00,29.1,19.9,30.25,SE,141,1.0,7.0,68,0.00,,---,0.00,VWS V13.01,2013-02-23 07:54:00,
2013-02-23 02:56:00,29.1,19.9,30.25,ESE,113,3.0,7.0,68,0.00,,---,0.00,VWS V13.01,2013-02-23 07:56:00,
2013-02-23 02:58:00,29.1,19.9,30.25,SE,136,3.0,7.0,68,0.00,,---,0.00,VWS V13.01,2013-02-23 07:58:00,
2013-02-23 02:59:00,29.1,19.9,30.25,SE,136,2.0,7.0,68,0.00,,---,0.00,VWS V13.01,2013-02-23 07:59:00,
2013-02-23 03:01:00,29.1,19.9,30.25,SE,129,4.0,7.0,68,0.00,,---,0.00,VWS V13.01,2013-02-23 08:01:00,
2013-02-23 03:03:00,29.1,19.9,30.25,East,101,2.0,7.0,68,0.00,,---,0.00,VWS V13.01,2013-02-23 08:03:00,
2013-02-23 03:04:00,29.1,19.9,30.25,East,101,4.0,7.0,68,0.00,,---,0.00,VWS V13.01,2013-02-23 08:04:00,
2013-02-23 03:06:00,29.1,19.9,30.25,ESE,106,4.0,7.0,68,0.00,,---,0.00,VWS V13.01,2013-02-23 08:06:00,
2013-02-23 03:08:00,29.1,19.9,30.25,SE,141,2.0,7.0,68,0.00,,---,0.00,VWS V13.01,2013-02-23 08:08:00,
2013-02-23 03:09:00,29.1,19.9,30.25,ESE,102,5.0,7.0,68,0.00,,---,0.00,VWS V13.01,2013-02-23 08:09:00,
2013-02-23 03:11:00,29.1,20.2,30.24,SE,134,2.0,7.0,69,0.00,,---,0.00,VWS V13.01,2013-02-23 08:11:00,
2013-02-23 03:13:00,29.1,20.2,30.24,ESE,104,2.0,7.0,69,0.00,,---,0.00,VWS V13.01,2013-02-23 08:13:00,
2013-02-23 03:14:00,29.1,20.2,30.24,ESE,106,4.0,7.0,69,0.00,,---,0.00,VWS V13.01,2013-02-23 08:14:00,
2013-02-23 03:16:00,29.0,20.1,30.24,East,82,4.0,7.0,69,0.00,,---,0.00,VWS V13.01,2013-02-23 08:16:00,
2013-02-23 03:18:00,29.0,20.1,30.24,ESE,111,2.0,7.0,69,0.00,,---,0.00,VWS V13.01,2013-02-23 08:18:00,
2013-02-23 03:19:00,29.0,20.1,30.24,ESE,112,2.0,7.0,69,0.00,,---,0.00,VWS V13.01,2013-02-23 08:19:00,
2013-02-23 03:21:00,29.0,20.1,30.24,South,176,5.0,7.0,69,0.00,,---,0.00,VWS V13.01,2013-02-23 08:21:00,
2013-02-23 03:24:00,28.8,19.9,30.24,ESE,121,3.0,7.0,69,0.00,,---,0.00,VWS V13.01,2013-02-23 08:24:00,
2013-02-23 03:27:00,28.8,19.6,30.23,SSE,168,4.0,6.0,68,0.00,,---,0.00,VWS V13.01,2013-02-23 08:27:00,
2013-02-23 03:29:00,28.8,19.9,30.23,East,98,5.0,6.0,69,0.00,,---,0.00,VWS V13.01,2013-02-23 08:29:00,
2013-02-23 03:30:00,28.8,19.6,30.23,ESE,113,2.0,6.0,68,0.00,,---,0.00,VWS V13.01,2013-02-23 08:30:00,
2013-02-23 03:32:00,28.8,19.9,30.23,SE,133,5.0,6.0,69,0.00,,---,0.00,VWS V13.01,2013-02-23 08:32:00,
2013-02-23 03:34:00,28.8,19.9,30.23,ESE,115,0.0,6.0,69,0.00,,---,0.00,VWS V13.01,2013-02-23 08:34:00,
2013-02-23 03:35:00,28.8,19.6,30.23,ESE,119,5.0,9.0,68,0.00,,---,0.00,VWS V13.01,2013-02-23 08:35:00,
2013-02-23 03:37:00,28.8,19.6,30.23,SE,130,2.0,9.0,68,0.00,,---,0.00,VWS V13.01,2013-02-23 08:37:00,
2013-02-23 03:39:00,28.8,19.9,30.23,SE,130,1.0,9.0,69,0.00,,---,0.00,VWS V13.01,2013-02-23 08:39:00,
2013-02-23 03:40:00,28.8,19.9,30.23,ESE,115,3.0,9.0,69,0.00,,---,0.00,VWS V13.01,2013-02-23 08:40:00,
2013-02-23 03:42:00,28.8,19.9,30.23,ENE,60,3.0,9.0,69,0.00,,---,0.00,VWS V13.01,2013-02-23 08:42:00,
2013-02-23 03:44:00,28.8,19.9,30.23,East,96,1.0,9.0,69,0.00,,---,0.00,VWS V13.01,2013-02-23 08:44:00,
2013-02-23 03:45:00,28.7,19.8,30.23,SE,138,5.0,9.0,69,0.00,,---,0.00,VWS V13.01,2013-02-23 08:45:00,
2013-02-23 03:47:00,28.7,19.8,30.23,ESE,118,2.0,9.0,69,0.00,,---,0.00,VWS V13.01,2013-02-23 08:47:00,
2013-02-23 03:49:00,28.7,19.8,30.23,ESE,108,6.0,9.0,69,0.00,,---,0.00,VWS V13.01,2013-02-23 08:49:00,
2013-02-23 03:50:00,28.7,19.8,30.23,SE,139,6.0,9.0,69,0.00,,---,0.00,VWS V13.01,2013-02-23 08:50:00,
2013-02-23 03:52:00,28.8,19.9,30.23,SE,142,1.0,9.0,69,0.00,,---,0.00,VWS V13.01,2013-02-23 08:52:00,
2013-02-23 03:54:00,28.8,19.9,30.23,SSE,163,5.0,9.0,69,0.00,,---,0.00,VWS V13.01,2013-02-23 08:54:00,
2013-02-23 03:55:00,28.8,19.9,30.23,SW,218,1.0,9.0,69,0.00,,---,0.00,VWS V13.01,2013-02-23 08:55:00,
2013-02-23 03:57:00,28.8,19.9,30.23,SSE,162,0.0,3.0,69,0.00,,---,0.00,VWS V13.01,2013-02-23 08:57:00,
2013-02-23 03:59:00,28.8,19.9,30.23,SE,130,4.0,9.0,69,0.00,,---,0.00,VWS V13.01,2013-02-23 08:59:00,
2013-02-23 04:00:00,28.8,19.6,30.23,SE,131,2.0,9.0,68,0.00,,---,0.00,VWS V13.01,2013-02-23 09:00:00,
2013-02-23 04:03:00,28.8,19.6,30.23,SE,144,3.0,9.0,68,0.00,,---,0.00,VWS V13.01,2013-02-23 09:03:00,
2013-02-23 04:05:00,28.8,19.6,30.23,SE,133,3.0,9.0,68,0.00,,---,0.00,VWS V13.01,2013-02-23 09:05:00,
2013-02-23 04:06:00,28.8,19.6,30.23,SE,133,3.0,9.0,68,0.00,,---,0.00,VWS V13.01,2013-02-23 09:06:00,
2013-02-23 04:08:00,28.8,19.6,30.23,SE,133,2.0,9.0,68,0.00,,---,0.00,VWS V13.01,2013-02-23 09:08:00,
2013-02-23 04:10:00,29.0,19.8,30.21,SE,126,1.0,9.0,68,0.00,,---,0.00,VWS V13.01,2013-02-23 09:10:00,
2013-02-23 04:11:00,29.0,19.8,30.21,South,179,4.0,9.0,68,0.00,,---,0.00,VWS V13.01,2013-02-23 09:11:00,
2013-02-23 04:13:00,29.0,19.8,30.21,South,169,5.0,9.0,68,0.00,,---,0.00,VWS V13.01,2013-02-23 09:13:00,
2013-02-23 04:15:00,29.0,19.4,30.21,ESE,103,3.0,14.0,67,0.00,,---,0.00,VWS V13.01,2013-02-23 09:15:00,
2013-02-23 04:16:00,29.0,19.4,30.21,South,178,3.0,14.0,67,0.00,,---,0.00,VWS V13.01,2013-02-23 09:16:00,
2013-02-23 04:18:00,29.0,19.4,30.21,SE,144,4.0,14.0,67,0.00,,---,0.00,VWS V13.01,2013-02-23 09:18:00,
2013-02-23 04:20:00,29.1,19.5,30.21,SE,129,3.0,14.0,67,0.00,,---,0.00,VWS V13.01,2013-02-23 09:20:00,
2013-02-23 04:21:00,29.1,19.5,30.21,SE,134,1.0,14.0,67,0.00,,---,0.00,VWS V13.01,2013-02-23 09:21:00,
2013-02-23 04:23:00,29.1,19.5,30.21,SE,144,4.0,14.0,67,0.00,,---,0.00,VWS V13.01,2013-02-23 09:23:00,
2013-02-23 04:25:00,29.0,19.4,30.21,SSE,153,4.0,14.0,67,0.00,,---,0.00,VWS V13.01,2013-02-23 09:25:00,
2013-02-23 04:26:00,29.1,19.5,30.21,SE,127,8.0,8.0,67,0.00,,---,0.00,VWS V13.01,2013-02-23 09:26:00,
2013-02-23 04:28:00,29.1,19.5,30.21,SE,142,3.0,9.0,67,0.00,,---,0.00,VWS V13.01,2013-02-23 09:28:00,
2013-02-23 04:31:00,29.1,19.5,30.21,South,172,4.0,9.0,67,0.00,,---,0.00,VWS V13.01,2013-02-23 09:31:00,
2013-02-23 04:33:00,29.0,19.4,30.21,South,173,7.0,9.0,67,0.00,,---,0.00,VWS V13.01,2013-02-23 09:33:00,
2013-02-23 04:36:00,29.1,19.5,30.21,SSE,155,3.0,9.0,67,0.00,,---,0.00,VWS V13.01,2013-02-23 09:36:00,
2013-02-23 04:38:00,29.1,19.2,30.21,SE,136,2.0,9.0,66,0.00,,---,0.00,VWS V13.01,2013-02-23 09:38:00,
2013-02-23 04:41:00,29.1,19.2,30.22,SSE,148,6.0,12.0,66,0.00,,---,0.00,VWS V13.01,2013-02-23 09:41:00,
2013-02-23 04:43:00,29.3,19.4,30.22,SE,146,4.0,12.0,66,0.00,,---,0.00,VWS V13.01,2013-02-23 09:43:00,
2013-02-23 04:46:00,29.3,19.0,30.22,South,188,0.0,12.0,65,0.00,,---,0.00,VWS V13.01,2013-02-23 09:46:00,
2013-02-23 04:48:00,29.3,19.0,30.22,SSE,154,7.0,12.0,65,0.00,,---,0.00,VWS V13.01,2013-02-23 09:48:00,
2013-02-23 04:51:00,29.3,19.0,30.22,SE,145,3.0,12.0,65,0.00,,---,0.00,VWS V13.01,2013-02-23 09:51:00,
2013-02-23 04:53:00,29.3,19.0,30.22,SE,143,3.0,12.0,65,0.00,,---,0.00,VWS V13.01,2013-02-23 09:53:00,
2013-02-23 04:56:00,29.4,18.7,30.22,SE,137,2.0,5.0,64,0.00,,---,0.00,VWS V13.01,2013-02-23 09:56:00,
2013-02-23 04:58:00,29.4,18.7,30.22,ESE,120,2.0,7.0,64,0.00,,---,0.00,VWS V13.01,2013-02-23 09:58:00,
2013-02-23 05:01:00,29.4,18.7,30.22,SSE,168,6.0,7.0,64,0.00,,---,0.00,VWS V13.01,2013-02-23 10:01:00,
2013-02-23 05:02:00,29.4,18.7,30.22,SSE,158,2.0,7.0,64,0.00,,---,0.00,VWS V13.01,2013-02-23 10:02:00,
2013-02-23 05:04:00,29.4,18.7,30.22,SSE,162,0.0,7.0,64,0.00,,---,0.00,VWS V13.01,2013-02-23 10:04:00,
2013-02-23 05:06:00,29.4,18.7,30.22,SSE,162,0.0,7.0,64,0.00,,---,0.00,VWS V13.01,2013-02-23 10:06:00,
2013-02-23 05:07:00,29.4,18.7,30.22,SSE,162,1.0,7.0,64,0.00,,---,0.00,VWS V13.01,2013-02-23 10:07:00,
2013-02-23 05:09:00,29.3,18.6,30.22,SE,138,1.0,7.0,64,0.00,,---,0.00,VWS V13.01,2013-02-23 10:09:00,
2013-02-23 05:11:00,29.3,18.6,30.22,SE,144,1.0,7.0,64,0.00,,---,0.00,VWS V13.01,2013-02-23 10:11:00,
2013-02-23 05:12:00,29.3,18.6,30.22,SE,144,2.0,7.0,64,0.00,,---,0.00,VWS V13.01,2013-02-23 10:12:00,
2013-02-23 05:14:00,29.3,18.6,30.22,South,178,6.0,7.0,64,0.00,,---,0.00,VWS V13.01,2013-02-23 10:14:00,
2013-02-23 05:16:00,29.3,18.6,30.22,South,175,3.0,7.0,64,0.00,,---,0.00,VWS V13.01,2013-02-23 10:16:00,
2013-02-23 05:17:00,29.3,18.6,30.22,South,175,1.0,7.0,64,0.00,,---,0.00,VWS V13.01,2013-02-23 10:17:00,
2013-02-23 05:19:00,29.3,18.6,30.22,SE,125,0.0,7.0,64,0.00,,---,0.00,VWS V13.01,2013-02-23 10:19:00,
2013-02-23 05:22:00,29.3,18.6,30.22,SE,125,0.0,7.0,64,0.00,,---,0.00,VWS V13.01,2013-02-23 10:22:00,
2013-02-23 05:24:00,29.3,18.6,30.22,SE,125,0.0,7.0,64,0.00,,---,0.00,VWS V13.01,2013-02-23 10:24:00,
2013-02-23 05:27:00,29.3,18.6,30.21,SSE,153,3.0,5.0,64,0.00,,---,0.00,VWS V13.01,2013-02-23 10:27:00,
2013-02-23 05:30:00,29.3,18.6,30.21,SSE,153,2.0,5.0,64,0.00,,---,0.00,VWS V13.01,2013-02-23 10:30:00,
2013-02-23 05:32:00,29.3,18.6,30.21,SE,139,1.0,5.0,64,0.00,,---,0.00,VWS V13.01,2013-02-23 10:32:00,
2013-02-23 05:35:00,29.3,18.6,30.21,SE,136,2.0,6.0,64,0.00,,---,0.00,VWS V13.01,2013-02-23 10:35:00,
2013-02-23 05:37:00,29.3,18.6,30.21,SE,139,2.0,7.0,64,0.00,,---,0.00,VWS V13.01,2013-02-23 10:37:00,
2013-02-23 05:40:00,29.1,18.8,30.21,SE,143,5.0,7.0,65,0.00,,---,0.00,VWS V13.01,2013-02-23 10:40:00,
2013-02-23 05:42:00,29.1,18.8,30.21,SE,124,2.0,7.0,65,0.00,,---,0.00,VWS V13.01,2013-02-23 10:42:00,
2013-02-23 05:45:00,29.1,18.5,30.21,SE,129,0.0,7.0,64,0.00,,---,0.00,VWS V13.01,2013-02-23 10:45:00,
2013-02-23 05:47:00,29.1,18.8,30.21,SE,129,0.0,7.0,65,0.00,,---,0.00,VWS V13.01,2013-02-23 10:47:00,
2013-02-23 05:48:00,29.1,18.8,30.21,SE,129,0.0,7.0,65,0.00,,---,0.00,VWS V13.01,2013-02-23 10:48:00,
2013-02-23 05:50:00,29.0,18.7,30.21,South,172,2.0,7.0,65,0.00,,---,0.00,VWS V13.01,2013-02-23 10:50:00,
2013-02-23 05:52:00,29.0,18.7,30.21,South,172,0.0,7.0,65,0.00,,---,0.00,VWS V13.01,2013-02-23 10:52:00,
2013-02-23 05:53:00,29.0,18.7,30.21,South,172,1.0,7.0,65,0.00,,---,0.00,VWS V13.01,2013-02-23 10:53:00,
2013-02-23 05:55:00,29.0,18.7,30.21,SE,127,3.0,7.0,65,0.00,,---,0.00,VWS V13.01,2013-02-23 10:55:00,
2013-02-23 05:57:00,29.0,18.7,30.21,SE,127,1.0,2.0,65,0.00,,---,0.00,VWS V13.01,2013-02-23 10:57:00,
2013-02-23 05:58:00,29.0,18.7,30.21,SE,127,2.0,3.0,65,0.00,,---,0.00,VWS V13.01,2013-02-23 10:58:00,
2013-02-23 06:00:00,29.0,18.7,30.21,SE,127,1.0,3.0,65,0.00,,---,0.00,VWS V13.01,2013-02-23 11:00:00,
2013-02-23 06:02:00,29.0,18.7,30.21,SE,127,0.0,3.0,65,0.00,,---,0.00,VWS V13.01,2013-02-23 11:02:00,
2013-02-23 06:03:00,29.0,18.7,30.21,SE,127,2.0,3.0,65,0.00,,---,0.00,VWS V13.01,2013-02-23 11:03:00,
2013-02-23 06:05:00,28.8,18.5,30.21,SE,127,0.0,3.0,65,0.00,,---,0.00,VWS V13.01,2013-02-23 11:05:00,
2013-02-23 06:07:00,28.8,18.5,30.21,SE,127,1.0,3.0,65,0.00,,---,0.00,VWS V13.01,2013-02-23 11:07:00,
2013-02-23 06:08:00,28.8,18.5,30.21,SE,127,0.0,3.0,65,0.00,,---,0.00,VWS V13.01,2013-02-23 11:08:00,
2013-02-23 06:10:00,28.8,18.9,30.21,SE,127,0.0,3.0,66,0.00,,---,0.00,VWS V13.01,2013-02-23 11:10:00,
2013-02-23 06:12:00,28.8,18.9,30.21,SE,127,2.0,5.0,66,0.00,,---,0.00,VWS V13.01,2013-02-23 11:12:00,
2013-02-23 06:13:00,28.7,18.8,30.21,SE,127,0.0,5.0,66,0.00,,---,0.00,VWS V13.01,2013-02-23 11:13:00,
2013-02-23 06:15:00,28.7,18.8,30.21,SE,127,2.0,5.0,66,0.00,,---,0.00,VWS V13.01,2013-02-23 11:15:00,
2013-02-23 06:17:00,28.7,19.1,30.21,SE,127,2.0,5.0,67,0.00,,---,0.00,VWS V13.01,2013-02-23 11:17:00,
2013-02-23 06:18:00,28.7,19.1,30.21,SE,127,2.0,5.0,67,0.00,,---,0.00,VWS V13.01,2013-02-23 11:18:00,
2013-02-23 06:21:00,28.7,19.1,30.21,SE,127,2.0,5.0,67,0.00,,---,0.00,VWS V13.01,2013-02-23 11:21:00,
2013-02-23 06:22:00,28.7,19.1,30.21,SE,125,6.0,6.0,67,0.00,,---,0.00,VWS V13.01,2013-02-23 11:22:00,
2013-02-23 06:23:00,28.7,19.1,30.21,SE,136,0.0,6.0,67,0.00,,---,0.00,VWS V13.01,2013-02-23 11:23:00,
2013-02-23 06:26:00,28.7,19.1,30.20,SE,133,4.0,11.0,67,0.00,,---,0.00,VWS V13.01,2013-02-23 11:26:00,
2013-02-23 06:27:00,28.7,19.1,30.20,ENE,77,3.0,11.0,67,0.00,,---,0.00,VWS V13.01,2013-02-23 11:27:00,
2013-02-23 06:28:00,28.7,19.1,30.20,East,86,3.0,11.0,67,0.00,,---,0.00,VWS V13.01,2013-02-23 11:28:00,
2013-02-23 06:31:00,28.7,19.5,30.20,ESE,114,4.0,11.0,68,0.00,,---,0.00,VWS V13.01,2013-02-23 11:31:00,
2013-02-23 06:32:00,28.7,19.5,30.20,SSE,148,3.0,11.0,68,0.00,,---,0.00,VWS V13.01,2013-02-23 11:32:00,
2013-02-23 06:33:00,28.7,19.5,30.20,ESE,110,3.0,11.0,68,0.00,,---,0.00,VWS V13.01,2013-02-23 11:33:00,
2013-02-23 06:36:00,28.7,19.5,30.20,ESE,121,3.0,11.0,68,0.00,,---,0.00,VWS V13.01,2013-02-23 11:36:00,
2013-02-23 06:37:00,28.7,19.5,30.20,ESE,121,2.0,11.0,68,0.00,,---,0.00,VWS V13.01,2013-02-23 11:37:00,
2013-02-23 06:38:00,28.7,19.5,30.20,ESE,121,3.0,11.0,68,0.00,,---,0.00,VWS V13.01,2013-02-23 11:38:00,
2013-02-23 06:41:00,28.5,19.6,30.20,ESE,118,5.0,11.0,69,0.00,,---,0.00,VWS V13.01,2013-02-23 11:41:00,
2013-02-23 06:43:00,28.5,19.6,30.20,ESE,115,5.0,11.0,69,0.00,,---,0.00,VWS V13.01,2013-02-23 11:43:00,
2013-02-23 06:44:00,28.5,19.6,30.20,ESE,103,2.0,11.0,69,0.00,,---,0.00,VWS V13.01,2013-02-23 11:44:00,
2013-02-23 06:46:00,28.5,19.6,30.20,ESE,122,3.0,11.0,69,0.00,,---,0.00,VWS V13.01,2013-02-23 11:46:00,
2013-02-23 06:48:00,28.5,19.6,30.20,SSE,148,4.0,11.0,69,0.00,,---,0.00,VWS V13.01,2013-02-23 11:48:00,
2013-02-23 06:49:00,28.5,19.6,30.20,SE,126,3.0,11.0,69,0.00,,---,0.00,VWS V13.01,2013-02-23 11:49:00,
2013-02-23 06:51:00,28.5,19.6,30.20,ESE,121,1.0,11.0,69,0.00,,---,0.00,VWS V13.01,2013-02-23 11:51:00,
2013-02-23 06:53:00,28.5,19.6,30.20,ESE,122,1.0,11.0,69,0.00,,---,0.00,VWS V13.01,2013-02-23 11:53:00,
2013-02-23 06:54:00,28.5,19.6,30.20,ESE,122,2.0,11.0,69,0.00,,---,0.00,VWS V13.01,2013-02-23 11:54:00,
2013-02-23 06:56:00,28.5,19.6,30.20,SE,138,10.0,10.0,69,0.00,,---,0.00,VWS V13.01,2013-02-23 11:56:00,
2013-02-23 06:58:00,28.5,19.6,30.20,SSE,153,2.0,12.0,69,0.00,,---,0.00,VWS V13.01,2013-02-23 11:58:00,
2013-02-23 06:59:00,28.5,19.6,30.20,SSE,153,2.0,12.0,69,0.00,,---,0.00,VWS V13.01,2013-02-23 11:59:00,
2013-02-23 07:02:00,28.7,19.8,30.20,SSE,153,2.0,12.0,69,0.00,,---,0.00,VWS V13.01,2013-02-23 12:02:00,
2013-02-23 07:03:00,28.7,19.8,30.20,SSE,153,2.0,12.0,69,0.00,,---,0.00,VWS V13.01,2013-02-23 12:03:00,
2013-02-23 07:04:00,28.7,19.8,30.20,SSE,153,2.0,12.0,69,0.00,,---,0.00,VWS V13.01,2013-02-23 12:04:00,
2013-02-23 07:07:00,28.7,19.8,30.20,SE,125,4.0,12.0,69,0.00,,---,0.00,VWS V13.01,2013-02-23 12:07:00,
2013-02-23 07:08:00,28.7,20.2,30.20,ESE,115,3.0,12.0,70,0.00,,---,0.00,VWS V13.01,2013-02-23 12:08:00,
2013-02-23 07:09:00,28.7,20.2,30.20,East,89,7.0,12.0,70,0.00,,---,0.00,VWS V13.01,2013-02-23 12:09:00,
2013-02-23 07:12:00,28.7,20.2,30.20,ENE,73,2.0,12.0,70,0.00,,---,0.00,VWS V13.01,2013-02-23 12:12:00,
2013-02-23 07:13:00,28.7,20.2,30.20,SE,146,0.0,12.0,70,0.00,,---,0.00,VWS V13.01,2013-02-23 12:13:00,
2013-02-23 07:14:00,28.7,20.2,30.20,SE,146,3.0,12.0,70,0.00,,---,0.00,VWS V13.01,2013-02-23 12:14:00,
2013-02-23 07:17:00,28.7,20.2,30.20,ESE,118,1.0,12.0,70,0.00,,---,0.00,VWS V13.01,2013-02-23 12:17:00,
2013-02-23 07:18:00,28.7,20.2,30.20,East,98,4.0,12.0,70,0.00,,---,0.00,VWS V13.01,2013-02-23 12:18:00,
2013-02-23 07:19:00,28.7,20.2,30.20,ESE,110,6.0,12.0,70,0.00,,---,0.00,VWS V13.01,2013-02-23 12:19:00,
2013-02-23 07:22:00,28.7,20.5,30.20,SSE,160,3.0,12.0,71,0.00,,---,0.00,VWS V13.01,2013-02-23 12:22:00,
2013-02-23 07:23:00,28.7,20.2,30.20,SSE,161,4.0,12.0,70,0.00,,---,0.00,VWS V13.01,2013-02-23 12:23:00,
2013-02-23 07:24:00,28.7,20.2,30.20,SE,129,8.0,12.0,70,0.00,,---,0.00,VWS V13.01,2013-02-23 12:24:00,
2013-02-23 07:27:00,28.7,20.5,30.20,ESE,114,5.0,9.0,71,0.00,,---,0.00,VWS V13.01,2013-02-23 12:27:00,
2013-02-23 07:29:00,28.5,20.3,30.20,SSE,150,4.0,9.0,71,0.00,,---,0.00,VWS V13.01,2013-02-23 12:29:00,
2013-02-23 07:32:00,28.7,20.5,30.20,SE,139,3.0,9.0,71,0.00,,---,0.00,VWS V13.01,2013-02-23 12:32:00,
2013-02-23 07:34:00,28.7,20.5,30.20,ESE,120,2.0,9.0,71,0.00,,---,0.00,VWS V13.01,2013-02-23 12:34:00,
2013-02-23 07:37:00,28.7,20.5,30.20,SSE,150,2.0,10.0,71,0.00,,---,0.00,VWS V13.01,2013-02-23 12:37:00,
2013-02-23 07:39:00,28.5,20.6,30.20,ESE,123,7.0,11.0,72,0.00,,---,0.00,VWS V13.01,2013-02-23 12:39:00,
2013-02-23 07:40:00,28.7,20.5,30.19,SE,132,6.0,11.0,71,0.00,,---,0.00,VWS V13.01,2013-02-23 12:40:00,
2013-02-23 07:42:00,28.7,20.8,30.19,SSE,165,5.0,11.0,72,0.00,,---,0.00,VWS V13.01,2013-02-23 12:42:00,
2013-02-23 07:44:00,28.7,20.8,30.19,ESE,114,4.0,11.0,72,0.00,,---,0.00,VWS V13.01,2013-02-23 12:44:00,
2013-02-23 07:45:00,28.7,20.8,30.19,SE,138,5.0,11.0,72,0.00,,---,0.00,VWS V13.01,2013-02-23 12:45:00,
2013-02-23 07:47:00,28.7,20.8,30.19,East,82,2.0,11.0,72,0.00,,---,0.00,VWS V13.01,2013-02-23 12:47:00,
2013-02-23 07:49:00,28.7,20.8,30.19,SE,133,5.0,11.0,72,0.00,,---,0.00,VWS V13.01,2013-02-23 12:49:00,
2013-02-23 07:50:00,28.7,20.8,30.19,ESE,110,4.0,11.0,72,0.00,,---,0.00,VWS V13.01,2013-02-23 12:50:00,
2013-02-23 07:52:00,28.7,20.8,30.19,East,80,2.0,11.0,72,0.00,,---,0.00,VWS V13.01,2013-02-23 12:52:00,
2013-02-23 07:54:00,28.8,20.9,30.19,ESE,108,4.0,11.0,72,0.00,,---,0.00,VWS V13.01,2013-02-23 12:54:00,
2013-02-23 07:55:00,28.8,20.9,30.19,ESE,114,3.0,11.0,72,0.00,,---,0.00,VWS V13.01,2013-02-23 12:55:00,
2013-02-23 07:57:00,28.8,20.9,30.19,ESE,115,4.0,8.0,72,0.00,,---,0.00,VWS V13.01,2013-02-23 12:57:00,
2013-02-23 07:59:00,28.8,20.9,30.19,ESE,115,0.0,8.0,72,0.00,,---,0.00,VWS V13.01,2013-02-23 12:59:00,
2013-02-23 08:00:00,28.8,20.9,30.19,ESE,115,0.0,8.0,72,0.00,,---,0.00,VWS V13.01,2013-02-23 13:00:00,
2013-02-23 08:02:00,28.8,20.9,30.19,East,85,2.0,11.0,72,0.00,,---,0.00,VWS V13.01,2013-02-23 13:02:00,
2013-02-23 08:05:00,29.0,21.4,30.19,East,93,2.0,11.0,73,0.00,,---,0.00,VWS V13.01,2013-02-23 13:05:00,
2013-02-23 08:07:00,28.8,21.2,30.19,ESE,117,2.0,11.0,73,0.00,,---,0.00,VWS V13.01,2013-02-23 13:07:00,
2013-02-23 08:10:00,28.8,21.2,30.19,SSE,157,2.0,11.0,73,0.00,,---,0.00,VWS V13.01,2013-02-23 13:10:00,
2013-02-23 08:12:00,29.0,21.4,30.19,ESE,107,3.0,11.0,73,0.00,,---,0.00,VWS V13.01,2013-02-23 13:12:00,
2013-02-23 08:15:00,29.0,21.4,30.19,ESE,115,4.0,11.0,73,0.00,,---,0.00,VWS V13.01,2013-02-23 13:15:00,
2013-02-23 08:18:00,29.0,21.4,30.19,ESE,113,0.0,11.0,73,0.00,,---,0.00,VWS V13.01,2013-02-23 13:18:00,
2013-02-23 08:20:00,29.0,21.4,30.19,SE,146,5.0,11.0,73,0.00,,---,0.00,VWS V13.01,2013-02-23 13:20:00,
2013-02-23 08:21:00,29.0,21.4,30.19,East,93,6.0,11.0,73,0.00,,---,0.00,VWS V13.01,2013-02-23 13:21:00,
2013-02-23 08:23:00,28.8,21.6,30.19,SSE,149,4.0,11.0,74,0.00,,---,0.00,VWS V13.01,2013-02-23 13:23:00,
2013-02-23 08:25:00,28.8,21.6,30.20,SE,143,3.0,11.0,74,0.00,,---,0.00,VWS V13.01,2013-02-23 13:25:00,
2013-02-23 08:26:00,28.8,21.6,30.20,ENE,64,3.0,3.0,74,0.00,,---,0.00,VWS V13.01,2013-02-23 13:26:00,
2013-02-23 08:28:00,29.0,21.8,30.20,ESE,103,2.0,5.0,74,0.00,,---,0.00,VWS V13.01,2013-02-23 13:28:00,
2013-02-23 08:30:00,29.0,21.8,30.20,SE,138,6.0,7.0,74,0.00,,---,0.00,VWS V13.01,2013-02-23 13:30:00,
2013-02-23 08:31:00,29.0,21.8,30.20,ENE,74,9.0,9.0,74,0.00,,---,0.00,VWS V13.01,2013-02-23 13:31:00,
2013-02-23 08:33:00,29.0,21.8,30.20,East,100,5.0,10.0,74,0.00,,---,0.00,VWS V13.01,2013-02-23 13:33:00,
2013-02-23 08:35:00,29.0,21.8,30.20,SE,146,8.0,10.0,74,0.00,,---,0.00,VWS V13.01,2013-02-23 13:35:00,
2013-02-23 08:36:00,29.0,21.8,30.20,SE,138,1.0,11.0,74,0.00,,---,0.00,VWS V13.01,2013-02-23 13:36:00,
2013-02-23 08:38:00,29.0,21.8,30.20,South,176,2.0,11.0,74,0.00,,---,0.00,VWS V13.01,2013-02-23 13:38:00,
2013-02-23 08:40:00,29.1,21.9,30.20,SE,134,3.0,11.0,74,0.00,,---,0.00,VWS V13.01,2013-02-23 13:40:00,
2013-02-23 08:41:00,29.1,21.9,30.20,SE,134,2.0,11.0,74,0.00,,---,0.00,VWS V13.01,2013-02-23 13:41:00,
2013-02-23 08:44:00,29.1,21.9,30.20,ESE,119,0.0,11.0,74,0.00,,---,0.00,VWS V13.01,2013-02-23 13:44:00,
2013-02-23 08:45:00,29.1,21.9,30.20,ESE,113,2.0,11.0,74,0.00,,---,0.00,VWS V13.01,2013-02-23 13:45:00,
2013-02-23 08:46:00,29.3,22.1,30.20,ESE,123,3.0,11.0,74,0.00,,---,0.00,VWS V13.01,2013-02-23 13:46:00,
2013-02-23 08:49:00,29.3,22.1,30.20,South,185,6.0,11.0,74,0.00,,---,0.00,VWS V13.01,2013-02-23 13:49:00,
2013-02-23 08:50:00,29.3,21.7,30.20,SE,124,4.0,11.0,73,0.00,,---,0.00,VWS V13.01,2013-02-23 13:50:00,
2013-02-23 08:51:00,29.3,22.1,30.20,SE,124,1.0,11.0,74,0.00,,---,0.00,VWS V13.01,2013-02-23 13:51:00,
2013-02-23 08:54:00,29.4,21.8,30.20,ESE,113,3.0,11.0,73,0.00,,---,0.00,VWS V13.01,2013-02-23 13:54:00,
2013-02-23 08:55:00,29.4,21.8,30.19,ESE,108,3.0,11.0,73,0.00,,---,0.00,VWS V13.01,2013-02-23 13:55:00,
2013-02-23 08:56:00,29.4,21.8,30.19,SE,145,5.0,7.0,73,0.00,,---,0.00,VWS V13.01,2013-02-23 13:56:00,
2013-02-23 08:57:00,29.4,21.8,30.19,SSE,150,3.0,7.0,73,0.00,,---,0.00,VWS V13.01,2013-02-23 13:57:00,
2013-02-23 08:59:00,29.4,21.8,30.19,SSE,156,4.0,7.0,73,0.00,,---,0.00,VWS V13.01,2013-02-23 13:59:00,
2013-02-23 09:00:00,29.4,22.1,30.19,ESE,113,4.0,7.0,74,0.00,,---,0.00,VWS V13.01,2013-02-23 14:00:00,
2013-02-23 09:01:00,29.4,21.8,30.19,ESE,121,1.0,7.0,73,0.00,,---,0.00,VWS V13.01,2013-02-23 14:01:00,
2013-02-23 09:02:00,29.4,21.8,30.19,ESE,121,2.0,7.0,73,0.00,,---,0.00,VWS V13.01,2013-02-23 14:02:00,
2013-02-23 09:04:00,29.5,21.9,30.19,SSE,161,5.0,10.0,73,0.00,,---,0.00,VWS V13.01,2013-02-23 14:04:00,
2013-02-23 09:05:00,29.5,21.9,30.19,East,86,4.0,10.0,73,0.00,,---,0.00,VWS V13.01,2013-02-23 14:05:00,
2013-02-23 09:07:00,29.5,21.9,30.19,ESE,117,5.0,10.0,73,0.00,,---,0.00,VWS V13.01,2013-02-23 14:07:00,
2013-02-23 09:09:00,29.5,22.2,30.18,NE,49,4.0,10.0,74,0.00,,---,0.00,VWS V13.01,2013-02-23 14:09:00,
2013-02-23 09:10:00,29.5,22.2,30.18,South,172,3.0,10.0,74,0.00,,---,0.00,VWS V13.01,2013-02-23 14:10:00,
2013-02-23 09:12:00,29.5,22.2,30.18,ESE,113,2.0,10.0,74,0.00,,---,0.00,VWS V13.01,2013-02-23 14:12:00,
2013-02-23 09:14:00,29.5,21.9,30.18,ESE,113,4.0,10.0,73,0.00,,---,0.00,VWS V13.01,2013-02-23 14:14:00,
2013-02-23 09:15:00,29.5,21.9,30.18,ESE,120,4.0,10.0,73,0.00,,---,0.00,VWS V13.01,2013-02-23 14:15:00,
2013-02-23 09:17:00,29.5,22.2,30.18,South,184,4.0,11.0,74,0.00,,---,0.00,VWS V13.01,2013-02-23 14:17:00,
2013-02-23 09:19:00,29.5,22.2,30.18,SE,134,2.0,11.0,74,0.00,,---,0.00,VWS V13.01,2013-02-23 14:19:00,
2013-02-23 09:20:00,29.5,22.2,30.18,SE,130,3.0,11.0,74,0.00,,---,0.00,VWS V13.01,2013-02-23 14:20:00,
2013-02-23 09:22:00,29.5,22.2,30.18,ESE,107,5.0,11.0,74,0.00,,---,0.00,VWS V13.01,2013-02-23 14:22:00,
2013-02-23 09:24:00,29.4,22.1,30.18,East,96,3.0,11.0,74,0.00,,---,0.00,VWS V13.01,2013-02-23 14:24:00,
2013-02-23 09:26:00,29.4,22.1,30.18,SE,124,4.0,4.0,74,0.00,,---,0.00,VWS V13.01,2013-02-23 14:26:00,
2013-02-23 09:27:00,29.4,22.1,30.18,ESE,113,6.0,6.0,74,0.00,,---,0.00,VWS V13.01,2013-02-23 14:27:00,
2013-02-23 09:29:00,29.5,22.2,30.18,ESE,121,5.0,9.0,74,0.00,,---,0.00,VWS V13.01,2013-02-23 14:29:00,
2013-02-23 09:31:00,29.5,22.2,30.18,SE,129,0.0,9.0,74,0.00,,---,0.00,VWS V13.01,2013-02-23 14:31:00,
2013-02-23 09:32:00,29.5,22.2,30.18,ESE,102,5.0,9.0,74,0.00,,---,0.00,VWS V13.01,2013-02-23 14:32:00,
2013-02-23 09:34:00,29.7,22.4,30.18,ENE,76,3.0,9.0,74,0.00,,---,0.00,VWS V13.01,2013-02-23 14:34:00,
2013-02-23 09:36:00,29.7,22.4,30.18,ESE,103,4.0,9.0,74,0.00,,---,0.00,VWS V13.01,2013-02-23 14:36:00,
2013-02-23 09:37:00,29.7,22.4,30.18,East,101,4.0,9.0,74,0.00,,---,0.00,VWS V13.01,2013-02-23 14:37:00,
2013-02-23 09:39:00,29.7,22.4,30.17,ESE,103,5.0,9.0,74,0.00,,---,0.00,VWS V13.01,2013-02-23 14:39:00,
2013-02-23 09:41:00,29.7,22.4,30.17,East,91,4.0,12.0,74,0.00,,---,0.00,VWS V13.01,2013-02-23 14:41:00,
2013-02-23 09:42:00,29.7,22.4,30.17,ESE,122,4.0,12.0,74,0.00,,---,0.00,VWS V13.01,2013-02-23 14:42:00,
2013-02-23 09:43:00,29.7,22.4,30.17,ESE,117,6.0,12.0,74,0.00,,---,0.00,VWS V13.01,2013-02-23 14:43:00,
2013-02-23 09:44:00,29.7,22.4,30.17,SE,126,2.0,12.0,74,0.00,,---,0.00,VWS V13.01,2013-02-23 14:44:00,
2013-02-23 09:46:00,29.7,22.4,30.17,SSE,158,5.0,12.0,74,0.00,,---,0.00,VWS V13.01,2013-02-23 14:46:00,
2013-02-23 09:47:00,29.8,22.5,30.17,SE,124,3.0,12.0,74,0.00,,---,0.00,VWS V13.01,2013-02-23 14:47:00,
2013-02-23 09:48:00,29.8,22.5,30.17,SSE,155,5.0,12.0,74,0.00,,---,0.00,VWS V13.01,2013-02-23 14:48:00,
2013-02-23 09:49:00,29.8,22.5,30.17,ENE,68,5.0,12.0,74,0.00,,---,0.00,VWS V13.01,2013-02-23 14:49:00,
2013-02-23 09:51:00,29.8,22.5,30.17,East,92,2.0,12.0,74,0.00,,---,0.00,VWS V13.01,2013-02-23 14:51:00,
2013-02-23 09:52:00,29.8,22.5,30.17,East,89,2.0,12.0,74,0.00,,---,0.00,VWS V13.01,2013-02-23 14:52:00,
2013-02-23 09:53:00,29.8,22.5,30.17,ESE,113,2.0,12.0,74,0.00,,---,0.00,VWS V13.01,2013-02-23 14:53:00,
2013-02-23 09:55:00,30.0,22.7,30.17,ESE,113,2.0,12.0,74,0.00,,---,0.00,VWS V13.01,2013-02-23 14:55:00,
2013-02-23 09:56:00,30.0,22.7,30.17,ESE,117,3.0,5.0,74,0.00,,---,0.00,VWS V13.01,2013-02-23 14:56:00,
2013-02-23 09:57:00,30.0,22.7,30.17,ESE,117,3.0,5.0,74,0.00,,---,0.00,VWS V13.01,2013-02-23 14:57:00,
2013-02-23 09:58:00,30.0,22.7,30.17,ESE,118,5.0,5.0,74,0.00,,---,0.00,VWS V13.01,2013-02-23 14:58:00,
2013-02-23 10:00:00,30.1,22.8,30.17,East,86,4.0,6.0,74,0.00,,---,0.00,VWS V13.01,2013-02-23 15:00:00,
2013-02-23 10:01:00,30.1,22.5,30.17,ESE,119,4.0,11.0,73,0.00,,---,0.00,VWS V13.01,2013-02-23 15:01:00,
2013-02-23 10:02:00,30.1,22.8,30.17,SSE,152,3.0,11.0,74,0.00,,---,0.00,VWS V13.01,2013-02-23 15:02:00,
2013-02-23 10:03:00,30.1,22.8,30.17,SSE,153,7.0,11.0,74,0.00,,---,0.00,VWS V13.01,2013-02-23 15:03:00,
2013-02-23 10:05:00,30.1,22.5,30.17,ESE,110,5.0,11.0,73,0.00,,---,0.00,VWS V13.01,2013-02-23 15:05:00,
2013-02-23 10:06:00,30.1,22.5,30.17,East,98,3.0,11.0,73,0.00,,---,0.00,VWS V13.01,2013-02-23 15:06:00,
2013-02-23 10:07:00,30.1,22.5,30.17,SE,134,5.0,11.0,73,0.00,,---,0.00,VWS V13.01,2013-02-23 15:07:00,
2013-02-23 10:08:00,30.1,22.5,30.17,SE,128,5.0,11.0,73,0.00,,---,0.00,VWS V13.01,2013-02-23 15:08:00,
2013-02-23 10:10:00,30.1,22.8,30.17,ENE,77,4.0,11.0,74,0.00,,---,0.00,VWS V13.01,2013-02-23 15:10:00,
2013-02-23 10:11:00,30.1,22.8,30.17,East,91,0.0,11.0,74,0.00,,---,0.00,VWS V13.01,2013-02-23 15:11:00,
2013-02-23 10:12:00,30.1,22.5,30.17,SE,127,3.0,11.0,73,0.00,,---,0.00,VWS V13.01,2013-02-23 15:12:00,
2013-02-23 10:13:00,30.1,22.5,30.17,SE,124,2.0,11.0,73,0.00,,---,0.00,VWS V13.01,2013-02-23 15:13:00,
2013-02-23 10:15:00,30.1,22.5,30.17,ESE,108,3.0,11.0,73,0.00,,---,0.00,VWS V13.01,2013-02-23 15:15:00,
2013-02-23 10:16:00,30.3,22.7,30.17,ESE,103,5.0,11.0,73,0.00,,---,0.00,VWS V13.01,2013-02-23 15:16:00,
2013-02-23 10:18:00,30.3,23.0,30.17,East,96,3.0,11.0,74,0.00,,---,0.00,VWS V13.01,2013-02-23 15:18:00,
2013-02-23 10:20:00,30.3,23.0,30.17,SE,124,6.0,14.0,74,0.00,,---,0.00,VWS V13.01,2013-02-23 15:20:00,
2013-02-23 10:21:00,30.3,23.0,30.17,ESE,122,4.0,14.0,74,0.00,,---,0.00,VWS V13.01,2013-02-23 15:21:00,
2013-02-23 10:23:00,30.3,23.0,30.17,ESE,117,4.0,14.0,74,0.00,,---,0.00,VWS V13.01,2013-02-23 15:23:00,
2013-02-23 10:26:00,30.3,23.0,30.17,ESE,106,4.0,4.0,74,0.00,,---,0.00,VWS V13.01,2013-02-23 15:26:00,
2013-02-23 10:28:00,30.3,23.0,30.17,NE,56,0.0,5.0,74,0.00,,---,0.00,VWS V13.01,2013-02-23 15:28:00,
2013-02-23 10:31:00,30.3,23.0,30.17,East,95,3.0,6.0,74,0.00,,---,0.00,VWS V13.01,2013-02-23 15:31:00,
2013-02-23 10:32:00,30.3,23.0,30.17,South,186,10.0,10.0,74,0.00,,---,0.00,VWS V13.01,2013-02-23 15:32:00,
2013-02-23 10:33:00,30.3,23.0,30.17,SE,135,6.0,11.0,74,0.00,,---,0.00,VWS V13.01,2013-02-23 15:33:00,
2013-02-23 10:34:00,30.3,23.0,30.17,East,96,6.0,11.0,74,0.00,,---,0.00,VWS V13.01,2013-02-23 15:34:00,
2013-02-23 10:36:00,30.3,23.0,30.17,SSE,162,3.0,12.0,74,0.00,,---,0.00,VWS V13.01,2013-02-23 15:36:00,
2013-02-23 10:37:00,30.3,23.0,30.17,SE,129,4.0,12.0,74,0.00,,---,0.00,VWS V13.01,2013-02-23 15:37:00,
2013-02-23 10:38:00,30.3,23.0,30.17,ESE,105,4.0,12.0,74,0.00,,---,0.00,VWS V13.01,2013-02-23 15:38:00,
2013-02-23 10:39:00,30.3,23.0,30.17,ESE,111,4.0,12.0,74,0.00,,---,0.00,VWS V13.01,2013-02-23 15:39:00,
2013-02-23 10:41:00,30.3,23.0,30.17,East,81,1.0,12.0,74,0.00,,---,0.00,VWS V13.01,2013-02-23 15:41:00,
2013-02-23 10:42:00,30.3,23.0,30.17,East,83,2.0,12.0,74,0.00,,---,0.00,VWS V13.01,2013-02-23 15:42:00,
2013-02-23 10:43:00,30.3,23.0,30.17,SE,141,2.0,12.0,74,0.00,,---,0.00,VWS V13.01,2013-02-23 15:43:00,
2013-02-23 10:44:00,30.3,23.0,30.17,ENE,62,3.0,12.0,74,0.00,,---,0.00,VWS V13.01,2013-02-23 15:44:00,
2013-02-23 10:46:00,30.3,23.0,30.17,ESE,110,6.0,12.0,74,0.00,,---,0.00,VWS V13.01,2013-02-23 15:46:00,
2013-02-23 10:47:00,30.4,23.1,30.17,SE,146,5.0,12.0,74,0.00,,---,0.00,VWS V13.01,2013-02-23 15:47:00,
2013-02-23 10:48:00,30.4,23.1,30.17,SE,124,4.0,12.0,74,0.00,,---,0.00,VWS V13.01,2013-02-23 15:48:00,
2013-02-23 10:49:00,30.4,23.1,30.17,SE,124,3.0,12.0,74,0.00,,---,0.00,VWS V13.01,2013-02-23 15:49:00,
2013-02-23 10:51:00,30.4,23.1,30.17,ESE,115,4.0,12.0,74,0.00,,---,0.00,VWS V13.01,2013-02-23 15:51:00,
2013-02-23 10:52:00,30.4,23.1,30.17,ESE,117,2.0,12.0,74,0.00,,---,0.00,VWS V13.01,2013-02-23 15:52:00,
2013-02-23 10:53:00,30.6,23.3,30.17,ESE,117,6.0,12.0,74,0.00,,---,0.00,VWS V13.01,2013-02-23 15:53:00,
2013-02-23 10:54:00,30.6,23.3,30.17,ESE,109,4.0,12.0,74,0.00,,---,0.00,VWS V13.01,2013-02-23 15:54:00,
2013-02-23 10:56:00,30.6,23.3,30.17,East,86,5.0,9.0,74,0.00,,---,0.00,VWS V13.01,2013-02-23 15:56:00,
2013-02-23 10:57:00,30.6,23.3,30.17,East,101,4.0,9.0,74,0.00,,---,0.00,VWS V13.01,2013-02-23 15:57:00,
2013-02-23 10:58:00,30.6,23.3,30.17,ENE,78,4.0,9.0,74,0.00,,---,0.00,VWS V13.01,2013-02-23 15:58:00,
2013-02-23 10:59:00,30.7,23.4,30.17,ESE,102,6.0,10.0,74,0.00,,---,0.00,VWS V13.01,2013-02-23 15:59:00,
2013-02-23 11:01:00,30.7,23.4,30.17,South,184,3.0,10.0,74,0.00,,---,0.00,VWS V13.01,2013-02-23 16:01:00,
2013-02-23 11:02:00,30.7,23.4,30.17,SE,136,11.0,11.0,74,0.00,,---,0.00,VWS V13.01,2013-02-23 16:02:00,
2013-02-23 11:03:00,30.7,23.4,30.17,East,101,4.0,11.0,74,0.00,,---,0.00,VWS V13.01,2013-02-23 16:03:00,
2013-02-23 11:04:00,30.7,23.4,30.17,East,94,4.0,11.0,74,0.00,,---,0.00,VWS V13.01,2013-02-23 16:04:00,
2013-02-23 11:06:00,30.9,23.6,30.17,ESE,108,6.0,11.0,74,0.00,,---,0.00,VWS V13.01,2013-02-23 16:06:00,
2013-02-23 11:07:00,30.9,23.6,30.17,East,89,5.0,11.0,74,0.00,,---,0.00,VWS V13.01,2013-02-23 16:07:00,
2013-02-23 11:08:00,30.9,23.6,30.17,East,90,5.0,11.0,74,0.00,,---,0.00,VWS V13.01,2013-02-23 16:08:00,
2013-02-23 11:09:00,30.9,23.6,30.17,East,89,4.0,11.0,74,0.00,,---,0.00,VWS V13.01,2013-02-23 16:09:00,
2013-02-23 11:12:00,31.0,24.0,30.15,ESE,104,4.0,11.0,75,0.00,,---,0.00,VWS V13.01,2013-02-23 16:12:00,
2013-02-23 11:13:00,31.0,24.0,30.15,ESE,103,7.0,11.0,75,0.00,,---,0.00,VWS V13.01,2013-02-23 16:13:00,
2013-02-23 11:14:00,31.0,24.0,30.15,East,101,3.0,11.0,75,0.00,,---,0.00,VWS V13.01,2013-02-23 16:14:00,
2013-02-23 11:16:00,30.9,23.9,30.15,ESE,113,6.0,11.0,75,0.00,,---,0.00,VWS V13.01,2013-02-23 16:16:00,
2013-02-23 11:17:00,30.9,23.9,30.15,East,99,4.0,11.0,75,0.00,,---,0.00,VWS V13.01,2013-02-23 16:17:00,
2013-02-23 11:18:00,30.9,23.9,30.15,East,101,4.0,11.0,75,0.00,,---,0.00,VWS V13.01,2013-02-23 16:18:00,
2013-02-23 11:19:00,30.9,23.9,30.15,SE,141,10.0,13.0,75,0.00,,---,0.00,VWS V13.01,2013-02-23 16:19:00,
2013-02-23 11:22:00,30.9,23.9,30.15,SSE,155,6.0,13.0,75,0.00,,---,0.00,VWS V13.01,2013-02-23 16:22:00,
2013-02-23 11:23:00,30.9,23.9,30.15,SE,136,4.0,13.0,75,0.00,,---,0.00,VWS V13.01,2013-02-23 16:23:00,
2013-02-23 11:25:00,31.0,24.0,30.15,ESE,103,5.0,13.0,75,0.00,,---,0.00,VWS V13.01,2013-02-23 16:25:00,
2013-02-23 11:27:00,31.0,24.3,30.15,ESE,115,5.0,7.0,76,0.00,,---,0.00,VWS V13.01,2013-02-23 16:27:00,
2013-02-23 11:28:00,31.0,24.3,30.15,SE,141,9.0,10.0,76,0.00,,---,0.00,VWS V13.01,2013-02-23 16:28:00,
2013-02-23 11:29:00,31.0,24.0,30.15,SE,136,5.0,10.0,75,0.00,,---,0.00,VWS V13.01,2013-02-23 16:29:00,
2013-02-23 11:30:00,30.9,24.2,30.15,East,86,2.0,10.0,76,0.00,,---,0.00,VWS V13.01,2013-02-23 16:30:00,
2013-02-23 11:32:00,31.0,24.3,30.15,ENE,77,5.0,10.0,76,0.00,,---,0.00,VWS V13.01,2013-02-23 16:32:00,
2013-02-23 11:33:00,31.0,24.3,30.15,East,98,2.0,11.0,76,0.00,,---,0.00,VWS V13.01,2013-02-23 16:33:00,
2013-02-23 11:34:00,31.0,24.3,30.15,East,91,2.0,11.0,76,0.00,,---,0.00,VWS V13.01,2013-02-23 16:34:00,
2013-02-23 11:35:00,31.0,24.3,30.15,SE,125,3.0,11.0,76,0.00,,---,0.00,VWS V13.01,2013-02-23 16:35:00,
2013-02-23 11:37:00,31.2,24.5,30.15,ESE,119,0.0,11.0,76,0.00,,---,0.00,VWS V13.01,2013-02-23 16:37:00,
2013-02-23 11:38:00,31.2,24.5,30.15,East,101,3.0,11.0,76,0.00,,---,0.00,VWS V13.01,2013-02-23 16:38:00,
2013-02-23 11:39:00,31.2,24.5,30.15,SSE,166,6.0,11.0,76,0.00,,---,0.00,VWS V13.01,2013-02-23 16:39:00,
2013-02-23 11:40:00,31.2,24.5,30.14,SE,137,4.0,11.0,76,0.00,,---,0.00,VWS V13.01,2013-02-23 16:40:00,
2013-02-23 11:42:00,31.2,24.2,30.14,SSE,153,5.0,11.0,75,0.00,,---,0.00,VWS V13.01,2013-02-23 16:42:00,
2013-02-23 11:43:00,31.2,24.2,30.14,SSE,151,2.0,11.0,75,0.00,,---,0.00,VWS V13.01,2013-02-23 16:43:00,
2013-02-23 11:44:00,31.2,24.5,30.14,ESE,110,2.0,11.0,76,0.00,,---,0.00,VWS V13.01,2013-02-23 16:44:00,
2013-02-23 11:45:00,31.2,24.5,30.14,SE,146,6.0,11.0,76,0.00,,---,0.00,VWS V13.01,2013-02-23 16:45:00,
2013-02-23 11:47:00,31.2,24.2,30.14,ENE,68,5.0,11.0,75,0.00,,---,0.00,VWS V13.01,2013-02-23 16:47:00,
2013-02-23 11:48:00,31.2,24.5,30.14,ENE,64,5.0,11.0,76,0.00,,---,0.00,VWS V13.01,2013-02-23 16:48:00,
2013-02-23 11:49:00,31.2,24.5,30.14,SE,125,5.0,11.0,76,0.00,,---,0.00,VWS V13.01,2013-02-23 16:49:00,
2013-02-23 11:50:00,31.2,24.5,30.14,ESE,116,3.0,11.0,76,0.00,,---,0.00,VWS V13.01,2013-02-23 16:50:00,
2013-02-23 11:52:00,31.2,24.5,30.14,East,99,3.0,11.0,76,0.00,,---,0.00,VWS V13.01,2013-02-23 16:52:00,
2013-02-23 11:53:00,31.2,24.5,30.14,SE,126,6.0,12.0,76,0.00,,---,0.00,VWS V13.01,2013-02-23 16:53:00,
2013-02-23 11:54:00,31.2,24.5,30.14,ESE,110,2.0,12.0,76,0.00,,---,0.00,VWS V13.01,2013-02-23 16:54:00,
2013-02-23 11:55:00,31.2,24.5,30.14,ENE,74,6.0,12.0,76,0.00,,---,0.00,VWS V13.01,2013-02-23 16:55:00,
2013-02-23 11:57:00,31.2,24.5,30.14,SE,138,7.0,9.0,76,0.00,,---,0.00,VWS V13.01,2013-02-23 16:57:00,
2013-02-23 11:58:00,31.2,24.5,30.14,SSE,157,6.0,12.0,76,0.00,,---,0.00,VWS V13.01,2013-02-23 16:58:00,
2013-02-23 12:00:00,31.2,24.5,30.14,ESE,117,5.0,12.0,76,0.00,,---,0.00,VWS V13.01,2013-02-23 17:00:00,
2013-02-23 12:02:00,31.2,24.8,30.14,East,96,0.0,12.0,77,0.00,,---,0.00,VWS V13.01,2013-02-23 17:02:00,
2013-02-23 12:03:00,31.2,24.8,30.14,East,100,9.0,12.0,77,0.00,,---,0.00,VWS V13.01,2013-02-23 17:03:00,
2013-02-23 12:05:00,31.0,24.6,30.14,SSE,162,6.0,12.0,77,0.00,,---,0.00,VWS V13.01,2013-02-23 17:05:00,
2013-02-23 12:07:00,31.2,24.8,30.14,SE,145,1.0,12.0,77,0.00,,---,0.00,VWS V13.01,2013-02-23 17:07:00,
2013-02-23 12:08:00,31.2,24.8,30.14,SE,131,6.0,12.0,77,0.00,,---,0.00,VWS V13.01,2013-02-23 17:08:00,
2013-02-23 12:10:00,31.2,24.8,30.12,ESE,103,3.0,12.0,77,0.00,,---,0.00,VWS V13.01,2013-02-23 17:10:00,
2013-02-23 12:12:00,31.3,24.9,30.12,SSE,148,6.0,12.0,77,0.00,,---,0.00,VWS V13.01,2013-02-23 17:12:00,
2013-02-23 12:14:00,31.3,24.9,30.12,ESE,116,2.0,12.0,77,0.00,,---,0.00,VWS V13.01,2013-02-23 17:14:00,
2013-02-23 12:15:00,31.3,24.9,30.12,SE,134,9.0,13.0,77,0.00,,---,0.00,VWS V13.01,2013-02-23 17:15:00,
2013-02-23 12:17:00,31.3,24.9,30.12,ESE,107,4.0,13.0,77,0.00,,---,0.00,VWS V13.01,2013-02-23 17:17:00,
2013-02-23 12:19:00,31.3,25.2,30.12,ESE,121,6.0,13.0,78,0.00,,---,0.00,VWS V13.01,2013-02-23 17:19:00,
2013-02-23 12:20:00,31.3,25.2,30.12,ESE,106,8.0,13.0,78,0.00,,---,0.00,VWS V13.01,2013-02-23 17:20:00,
2013-02-23 12:22:00,31.2,25.1,30.12,ESE,120,3.0,13.0,78,0.00,,---,0.00,VWS V13.01,2013-02-23 17:22:00,
2013-02-23 12:24:00,31.2,25.1,30.12,SSE,153,6.0,13.0,78,0.00,,---,0.00,VWS V13.01,2013-02-23 17:24:00,
2013-02-23 12:25:00,31.2,25.1,30.12,SE,126,4.0,13.0,78,0.00,,---,0.00,VWS V13.01,2013-02-23 17:25:00,
2013-02-23 12:27:00,31.2,25.5,30.12,SSW,203,2.0,6.0,79,0.00,,---,0.00,VWS V13.01,2013-02-23 17:27:00,
2013-02-23 12:29:00,31.3,25.6,30.12,SSE,158,1.0,6.0,79,0.00,,---,0.00,VWS V13.01,2013-02-23 17:29:00,
2013-02-23 12:30:00,31.3,25.6,30.12,SE,137,1.0,9.0,79,0.00,,---,0.00,VWS V13.01,2013-02-23 17:30:00,
2013-02-23 12:32:00,31.3,25.6,30.12,SE,134,4.0,9.0,79,0.00,,---,0.00,VWS V13.01,2013-02-23 17:32:00,
2013-02-23 12:34:00,31.3,25.6,30.12,ESE,109,5.0,9.0,79,0.00,,---,0.00,VWS V13.01,2013-02-23 17:34:00,
2013-02-23 12:35:00,31.3,25.6,30.12,ESE,109,0.0,9.0,79,0.00,,---,0.00,VWS V13.01,2013-02-23 17:35:00,
2013-02-23 12:37:00,31.3,25.6,30.12,SE,142,2.0,9.0,79,0.00,,---,0.00,VWS V13.01,2013-02-23 17:37:00,
2013-02-23 12:39:00,31.3,25.6,30.12,SE,139,5.0,9.0,79,0.00,,---,0.00,VWS V13.01,2013-02-23 17:39:00,
2013-02-23 12:40:00,31.3,25.6,30.11,SE,128,7.0,9.0,79,0.00,,---,0.00,VWS V13.01,2013-02-23 17:40:00,
2013-02-23 12:42:00,31.3,25.6,30.11,SE,134,7.0,10.0,79,0.00,,---,0.00,VWS V13.01,2013-02-23 17:42:00,
2013-02-23 12:44:00,31.3,25.6,30.11,ESE,105,6.0,10.0,79,0.00,,---,0.00,VWS V13.01,2013-02-23 17:44:00,
2013-02-23 12:45:00,31.2,25.8,30.11,SE,124,4.0,11.0,80,0.00,,---,0.00,VWS V13.01,2013-02-23 17:45:00,
2013-02-23 12:47:00,31.2,25.8,30.11,ESE,106,8.0,13.0,80,0.00,,---,0.00,VWS V13.01,2013-02-23 17:47:00,
2013-02-23 12:49:00,31.2,25.8,30.11,SE,138,1.0,13.0,80,0.00,,---,0.00,VWS V13.01,2013-02-23 17:49:00,
2013-02-23 12:50:00,31.2,25.8,30.11,ESE,113,2.0,13.0,80,0.00,,---,0.00,VWS V13.01,2013-02-23 17:50:00,
2013-02-23 12:53:00,31.3,25.9,30.11,East,84,4.0,13.0,80,0.00,,---,0.00,VWS V13.01,2013-02-23 17:53:00,
2013-02-23 12:54:00,31.3,25.9,30.11,SE,131,5.0,13.0,80,0.00,,---,0.00,VWS V13.01,2013-02-23 17:54:00,
2013-02-23 12:55:00,31.2,25.8,30.11,SSE,151,4.0,13.0,80,0.00,,---,0.00,VWS V13.01,2013-02-23 17:55:00,
2013-02-23 12:56:00,31.2,25.8,30.11,SSE,151,3.0,4.0,80,0.00,,---,0.00,VWS V13.01,2013-02-23 17:56:00,
2013-02-23 12:58:00,31.2,25.8,30.11,SSW,210,3.0,4.0,80,0.00,,---,0.00,VWS V13.01,2013-02-23 17:58:00,
2013-02-23 12:59:00,31.2,25.8,30.11,East,86,0.0,4.0,80,0.00,,---,0.00,VWS V13.01,2013-02-23 17:59:00,
2013-02-23 13:00:00,31.2,26.1,30.11,SE,127,5.0,9.0,81,0.00,,---,0.00,VWS V13.01,2013-02-23 18:00:00,
2013-02-23 13:01:00,31.2,25.8,30.11,SE,127,6.0,9.0,80,0.00,,---,0.00,VWS V13.01,2013-02-23 18:01:00,
2013-02-23 13:03:00,31.0,25.9,30.11,South,174,1.0,9.0,81,0.00,,---,0.00,VWS V13.01,2013-02-23 18:03:00,
2013-02-23 13:04:00,31.0,25.9,30.11,SE,134,3.0,9.0,81,0.00,,---,0.00,VWS V13.01,2013-02-23 18:04:00,
2013-02-23 13:05:00,31.0,25.9,30.11,South,184,4.0,9.0,81,0.00,,---,0.00,VWS V13.01,2013-02-23 18:05:00,
2013-02-23 13:06:00,31.0,25.9,30.11,SSE,166,4.0,9.0,81,0.00,,---,0.00,VWS V13.01,2013-02-23 18:06:00,
2013-02-23 13:08:00,31.0,25.9,30.11,South,179,6.0,10.0,81,0.00,,---,0.00,VWS V13.01,2013-02-23 18:08:00,
2013-02-23 13:09:00,31.0,25.9,30.11,SE,129,4.0,10.0,81,0.00,,---,0.00,VWS V13.01,2013-02-23 18:09:00,
2013-02-23 13:11:00,31.0,25.9,30.11,East,97,4.0,10.0,81,0.00,,---,0.00,VWS V13.01,2013-02-23 18:11:00,
2013-02-23 13:13:00,31.0,25.9,30.11,SE,146,4.0,10.0,81,0.00,,---,0.00,VWS V13.01,2013-02-23 18:13:00,
2013-02-23 13:14:00,31.0,25.9,30.11,South,174,7.0,10.0,81,0.00,,---,0.00,VWS V13.01,2013-02-23 18:14:00,
2013-02-23 13:16:00,31.0,25.9,30.11,SSE,167,4.0,10.0,81,0.00,,---,0.00,VWS V13.01,2013-02-23 18:16:00,
2013-02-23 13:18:00,31.0,25.9,30.11,SSE,149,8.0,12.0,81,0.00,,---,0.00,VWS V13.01,2013-02-23 18:18:00,
2013-02-23 13:20:00,31.0,25.9,30.11,SE,142,10.0,12.0,81,0.00,,---,0.00,VWS V13.01,2013-02-23 18:20:00,
2013-02-23 13:21:00,30.9,25.8,30.11,SE,136,9.0,12.0,81,0.00,,---,0.00,VWS V13.01,2013-02-23 18:21:00,
2013-02-23 13:23:00,30.9,26.1,30.11,SE,139,3.0,12.0,82,0.00,,---,0.00,VWS V13.01,2013-02-23 18:23:00,
2013-02-23 13:25:00,30.9,26.1,30.11,SE,139,1.0,12.0,82,0.00,,---,0.00,VWS V13.01,2013-02-23 18:25:00,
2013-02-23 13:26:00,30.9,26.1,30.11,ESE,112,0.0,3.0,82,0.00,,---,0.00,VWS V13.01,2013-02-23 18:26:00,
2013-02-23 13:28:00,30.9,26.1,30.11,SE,129,2.0,6.0,82,0.00,,---,0.00,VWS V13.01,2013-02-23 18:28:00,
2013-02-23 13:30:00,30.9,26.1,30.11,SE,129,2.0,6.0,82,0.00,,---,0.00,VWS V13.01,2013-02-23 18:30:00,
2013-02-23 13:31:00,30.9,26.1,30.11,SE,129,2.0,6.0,82,0.00,,---,0.00,VWS V13.01,2013-02-23 18:31:00,
2013-02-23 13:33:00,30.9,26.4,30.11,East,94,4.0,6.0,83,0.00,,---,0.00,VWS V13.01,2013-02-23 18:33:00,
2013-02-23 13:35:00,30.7,26.2,30.11,ESE,110,4.0,10.0,83,0.00,,---,0.00,VWS V13.01,2013-02-23 18:35:00,
2013-02-23 13:36:00,30.7,26.2,30.11,SE,143,7.0,10.0,83,0.00,,---,0.00,VWS V13.01,2013-02-23 18:36:00,
2013-02-23 13:38:00,30.7,26.2,30.11,SE,134,4.0,10.0,83,0.00,,---,0.00,VWS V13.01,2013-02-23 18:38:00,
2013-02-23 13:40:00,30.7,26.5,30.09,ENE,70,3.0,10.0,84,0.00,,---,0.00,VWS V13.01,2013-02-23 18:40:00,
2013-02-23 13:41:00,30.7,26.5,30.09,East,99,4.0,10.0,84,0.00,,---,0.00,VWS V13.01,2013-02-23 18:41:00,
2013-02-23 13:43:00,30.7,26.5,30.09,SE,138,3.0,10.0,84,0.00,,---,0.00,VWS V13.01,2013-02-23 18:43:00,
2013-02-23 13:46:00,30.7,26.5,30.09,SE,138,0.0,10.0,84,0.00,,---,0.00,VWS V13.01,2013-02-23 18:46:00,
2013-02-23 13:47:00,30.7,26.5,30.09,ESE,117,0.0,10.0,84,0.00,,---,0.00,VWS V13.01,2013-02-23 18:47:00,
2013-02-23 13:48:00,30.9,26.6,30.09,SSW,203,3.0,10.0,84,0.00,,---,0.00,VWS V13.01,2013-02-23 18:48:00,
2013-02-23 13:51:00,30.9,26.6,30.09,SE,124,5.0,10.0,84,0.00,,---,0.00,VWS V13.01,2013-02-23 18:51:00,
2013-02-23 13:52:00,31.0,27.0,30.09,SE,133,2.0,10.0,85,0.00,,---,0.00,VWS V13.01,2013-02-23 18:52:00,
2013-02-23 13:53:00,31.0,26.7,30.09,SE,142,4.0,12.0,84,0.00,,---,0.00,VWS V13.01,2013-02-23 18:53:00,
2013-02-23 13:56:00,31.0,26.7,30.09,East,98,2.0,3.0,84,0.00,,---,0.00,VWS V13.01,2013-02-23 18:56:00,
2013-02-23 13:57:00,31.0,26.7,30.09,SE,143,2.0,5.0,84,0.00,,---,0.00,VWS V13.01,2013-02-23 18:57:00,
2013-02-23 13:58:00,31.0,26.7,30.09,SE,146,2.0,5.0,84,0.00,,---,0.00,VWS V13.01,2013-02-23 18:58:00,
2013-02-23 14:01:00,31.2,27.2,30.09,SSE,156,3.0,5.0,85,0.00,,---,0.00,VWS V13.01,2013-02-23 19:01:00,
2013-02-23 14:02:00,31.2,27.2,30.09,SE,138,11.0,11.0,85,0.00,,---,0.00,VWS V13.01,2013-02-23 19:02:00,
2013-02-23 14:03:00,31.2,26.9,30.09,ESE,122,4.0,11.0,84,0.00,,---,0.00,VWS V13.01,2013-02-23 19:03:00,
2013-02-23 14:06:00,31.2,26.9,30.09,ESE,123,2.0,11.0,84,0.00,,---,0.00,VWS V13.01,2013-02-23 19:06:00,
2013-02-23 14:07:00,31.2,26.9,30.09,ESE,123,0.0,11.0,84,0.00,,---,0.00,VWS V13.01,2013-02-23 19:07:00,
2013-02-23 14:09:00,31.2,26.9,30.09,SE,143,1.0,11.0,84,0.00,,---,0.00,VWS V13.01,2013-02-23 19:09:00,
2013-02-23 14:11:00,31.2,26.9,30.09,East,82,1.0,11.0,84,0.00,,---,0.00,VWS V13.01,2013-02-23 19:11:00,
2013-02-23 14:12:00,31.2,26.9,30.09,SSE,155,7.0,11.0,84,0.00,,---,0.00,VWS V13.01,2013-02-23 19:12:00,
2013-02-23 14:13:00,31.2,26.9,30.09,South,169,6.0,11.0,84,0.00,,---,0.00,VWS V13.01,2013-02-23 19:13:00,
2013-02-23 14:14:00,31.2,26.9,30.09,South,176,5.0,11.0,84,0.00,,---,0.00,VWS V13.01,2013-02-23 19:14:00,
2013-02-23 14:16:00,31.2,26.9,30.09,SE,124,1.0,11.0,84,0.00,,---,0.00,VWS V13.01,2013-02-23 19:16:00,
2013-02-23 14:17:00,31.2,26.9,30.09,SE,124,2.0,11.0,84,0.00,,---,0.00,VWS V13.01,2013-02-23 19:17:00,
2013-02-23 14:18:00,31.2,26.9,30.09,ESE,113,5.0,11.0,84,0.00,,---,0.00,VWS V13.01,2013-02-23 19:18:00,
2013-02-23 14:19:00,31.2,26.9,30.09,South,184,6.0,11.0,84,0.00,,---,0.00,VWS V13.01,2013-02-23 19:19:00,
2013-02-23 14:21:00,31.2,26.9,30.09,ESE,119,3.0,11.0,84,0.00,,---,0.00,VWS V13.01,2013-02-23 19:21:00,
2013-02-23 14:22:00,31.2,26.9,30.09,SE,142,4.0,11.0,84,0.00,,---,0.00,VWS V13.01,2013-02-23 19:22:00,
2013-02-23 14:23:00,31.2,26.9,30.09,ESE,120,3.0,11.0,84,0.00,,---,0.00,VWS V13.01,2013-02-23 19:23:00,
2013-02-23 14:24:00,31.0,26.7,30.09,SE,132,4.0,11.0,84,0.00,,---,0.00,VWS V13.01,2013-02-23 19:24:00,
2013-02-23 14:26:00,31.0,26.7,30.09,ESE,103,2.0,3.0,84,0.00,,---,0.00,VWS V13.01,2013-02-23 19:26:00,
2013-02-23 14:27:00,31.0,26.7,30.09,SSE,147,4.0,7.0,84,0.00,,---,0.00,VWS V13.01,2013-02-23 19:27:00,
2013-02-23 14:28:00,31.0,26.7,30.09,ESE,106,7.0,12.0,84,0.00,,---,0.00,VWS V13.01,2013-02-23 19:28:00,
2013-02-23 14:29:00,31.0,26.7,30.09,East,94,7.0,12.0,84,0.00,,---,0.00,VWS V13.01,2013-02-23 19:29:00,
2013-02-23 14:31:00,31.0,26.7,30.09,ESE,102,3.0,12.0,84,0.00,,---,0.00,VWS V13.01,2013-02-23 19:31:00,
2013-02-23 14:32:00,31.0,26.7,30.09,ESE,108,3.0,12.0,84,0.00,,---,0.00,VWS V13.01,2013-02-23 19:32:00,
2013-02-23 14:33:00,31.0,26.7,30.09,East,101,6.0,12.0,84,0.00,,---,0.00,VWS V13.01,2013-02-23 19:33:00,
2013-02-23 14:34:00,31.2,26.9,30.09,East,91,2.0,12.0,84,0.00,,---,0.00,VWS V13.01,2013-02-23 19:34:00,
2013-02-23 14:36:00,31.3,27.3,30.09,SE,124,10.0,12.0,85,0.00,,---,0.00,VWS V13.01,2013-02-23 19:36:00,
2013-02-23 14:37:00,31.3,27.3,30.09,East,92,4.0,12.0,85,0.00,,---,0.00,VWS V13.01,2013-02-23 19:37:00,
2013-02-23 14:38:00,31.3,27.0,30.09,SE,129,6.0,12.0,84,0.00,,---,0.00,VWS V13.01,2013-02-23 19:38:00,
2013-02-23 14:39:00,31.3,27.0,30.09,SSW,203,6.0,12.0,84,0.00,,---,0.00,VWS V13.01,2013-02-23 19:39:00,
2013-02-23 14:41:00,31.3,27.0,30.09,SE,131,13.0,13.0,84,0.00,,---,0.00,VWS V13.01,2013-02-23 19:41:00,
2013-02-23 14:42:00,31.3,27.0,30.09,SSE,150,12.0,13.0,84,0.00,,---,0.00,VWS V13.01,2013-02-23 19:42:00,
2013-02-23 14:43:00,31.3,27.0,30.09,SSE,148,5.0,13.0,84,0.00,,---,0.00,VWS V13.01,2013-02-23 19:43:00,
2013-02-23 14:44:00,31.3,27.0,30.09,SE,138,2.0,13.0,84,0.00,,---,0.00,VWS V13.01,2013-02-23 19:44:00,
2013-02-23 14:46:00,31.2,26.9,30.09,ESE,106,4.0,15.0,84,0.00,,---,0.00,VWS V13.01,2013-02-23 19:46:00,
2013-02-23 14:48:00,31.2,26.6,30.09,SSW,195,6.0,15.0,83,0.00,,---,0.00,VWS V13.01,2013-02-23 19:48:00,
2013-02-23 14:49:00,31.2,26.6,30.09,ESE,120,4.0,15.0,83,0.00,,---,0.00,VWS V13.01,2013-02-23 19:49:00,
2013-02-23 14:51:00,31.2,26.6,30.09,SE,129,6.0,15.0,83,0.00,,---,0.00,VWS V13.01,2013-02-23 19:51:00,
2013-02-23 14:53:00,31.2,26.6,30.09,SSE,148,2.0,15.0,83,0.00,,---,0.00,VWS V13.01,2013-02-23 19:53:00,
2013-02-23 14:54:00,31.2,26.9,30.09,SSE,148,0.0,15.0,84,0.00,,---,0.00,VWS V13.01,2013-02-23 19:54:00,
2013-02-23 14:57:00,31.0,26.7,30.08,SE,143,2.0,15.0,84,0.00,,---,0.00,VWS V13.01,2013-02-23 19:57:00,
2013-02-23 14:58:00,31.0,26.7,30.08,SE,143,1.0,15.0,84,0.00,,---,0.00,VWS V13.01,2013-02-23 19:58:00,
2013-02-23 14:59:00,31.0,26.7,30.08,SE,143,0.0,15.0,84,0.00,,---,0.00,VWS V13.01,2013-02-23 19:59:00,
2013-02-23 15:02:00,31.2,26.9,30.08,SW,236,9.0,15.0,84,0.00,,---,0.00,VWS V13.01,2013-02-23 20:02:00,
2013-02-23 15:03:00,31.2,26.9,30.08,ESE,123,2.0,15.0,84,0.00,,---,0.00,VWS V13.01,2013-02-23 20:03:00,
2013-02-23 15:04:00,31.0,26.7,30.08,ESE,123,0.0,15.0,84,0.00,,---,0.00,VWS V13.01,2013-02-23 20:04:00,
2013-02-23 15:07:00,31.2,26.9,30.08,SSE,155,6.0,15.0,84,0.00,,---,0.00,VWS V13.01,2013-02-23 20:07:00,
2013-02-23 15:08:00,31.2,26.9,30.08,SSE,157,4.0,15.0,84,0.00,,---,0.00,VWS V13.01,2013-02-23 20:08:00,
2013-02-23 15:09:00,31.2,26.9,30.08,SSE,148,6.0,15.0,84,0.00,,---,0.00,VWS V13.01,2013-02-23 20:09:00,
2013-02-23 15:12:00,31.2,26.9,30.08,SE,132,4.0,15.0,84,0.00,,---,0.00,VWS V13.01,2013-02-23 20:12:00,
2013-02-23 15:13:00,31.2,26.9,30.08,SE,131,2.0,15.0,84,0.00,,---,0.00,VWS V13.01,2013-02-23 20:13:00,
2013-02-23 15:14:00,31.0,26.7,30.08,SE,146,3.0,15.0,84,0.00,,---,0.00,VWS V13.01,2013-02-23 20:14:00,
2013-02-23 15:17:00,31.2,27.2,30.08,ESE,122,2.0,15.0,85,0.00,,---,0.00,VWS V13.01,2013-02-23 20:17:00,
2013-02-23 15:18:00,31.2,27.2,30.08,SSE,154,5.0,15.0,85,0.00,,---,0.00,VWS V13.01,2013-02-23 20:18:00,
2013-02-23 15:19:00,31.2,27.2,30.08,SSE,147,2.0,15.0,85,0.00,,---,0.00,VWS V13.01,2013-02-23 20:19:00,
2013-02-23 15:23:00,31.2,27.2,30.08,SE,124,2.0,15.0,85,0.00,,---,0.00,VWS V13.01,2013-02-23 20:23:00,
2013-02-23 15:24:00,31.2,27.2,30.08,SE,146,4.0,15.0,85,0.00,,---,0.00,VWS V13.01,2013-02-23 20:24:00,
2013-02-23 15:28:00,31.2,27.2,30.07,South,185,4.0,6.0,85,0.00,,---,0.00,VWS V13.01,2013-02-23 20:28:00,
2013-02-23 15:29:00,31.2,27.2,30.07,ESE,122,7.0,11.0,85,0.00,,---,0.00,VWS V13.01,2013-02-23 20:29:00,
2013-02-23 15:33:00,31.2,27.2,30.07,East,91,6.0,11.0,85,0.00,,---,0.00,VWS V13.01,2013-02-23 20:33:00,
2013-02-23 15:34:00,31.2,27.2,30.07,ESE,116,9.0,11.0,85,0.00,,---,0.00,VWS V13.01,2013-02-23 20:34:00,
2013-02-23 15:38:00,31.2,27.2,30.07,SE,142,4.0,11.0,85,0.00,,---,0.00,VWS V13.01,2013-02-23 20:38:00,
2013-02-23 15:39:00,31.2,27.2,30.07,ESE,121,5.0,11.0,85,0.00,,---,0.00,VWS V13.01,2013-02-23 20:39:00,
2013-02-23 15:40:00,31.0,27.0,30.07,ESE,116,6.0,11.0,85,0.00,,---,0.00,VWS V13.01,2013-02-23 20:40:00,
2013-02-23 15:43:00,31.0,27.0,30.07,ESE,116,3.0,11.0,85,0.00,,---,0.00,VWS V13.01,2013-02-23 20:43:00,
2013-02-23 15:44:00,31.0,27.0,30.07,South,181,2.0,11.0,85,0.00,,---,0.00,VWS V13.01,2013-02-23 20:44:00,
2013-02-23 15:45:00,31.0,27.0,30.07,ENE,70,2.0,11.0,85,0.00,,---,0.00,VWS V13.01,2013-02-23 20:45:00,
2013-02-23 15:48:00,31.0,27.0,30.07,SE,142,6.0,11.0,85,0.00,,---,0.00,VWS V13.01,2013-02-23 20:48:00,
2013-02-23 15:49:00,31.0,27.0,30.07,SE,139,7.0,11.0,85,0.00,,---,0.00,VWS V13.01,2013-02-23 20:49:00,
2013-02-23 15:50:00,31.0,27.0,30.07,East,96,1.0,11.0,85,0.00,,---,0.00,VWS V13.01,2013-02-23 20:50:00,
2013-02-23 15:53:00,31.0,27.0,30.07,ESE,106,2.0,11.0,85,0.00,,---,0.00,VWS V13.01,2013-02-23 20:53:00,
2013-02-23 15:54:00,31.0,27.0,30.07,ESE,111,3.0,11.0,85,0.00,,---,0.00,VWS V13.01,2013-02-23 20:54:00,
2013-02-23 15:55:00,31.0,27.0,30.06,ESE,120,5.0,11.0,85,0.00,,---,0.00,VWS V13.01,2013-02-23 20:55:00,
2013-02-23 15:58:00,31.0,27.0,30.06,ESE,110,0.0,8.0,85,0.00,,---,0.00,VWS V13.01,2013-02-23 20:58:00,
2013-02-23 15:59:00,31.0,27.0,30.06,ESE,110,1.0,8.0,85,0.00,,---,0.00,VWS V13.01,2013-02-23 20:59:00,
2013-02-23 16:00:00,31.0,27.0,30.06,SSE,157,5.0,8.0,85,0.00,,---,0.00,VWS V13.01,2013-02-23 21:00:00,
2013-02-23 16:03:00,31.0,27.0,30.06,SE,131,0.0,8.0,85,0.00,,---,0.00,VWS V13.01,2013-02-23 21:03:00,
2013-02-23 16:04:00,31.0,27.0,30.06,ESE,109,4.0,8.0,85,0.00,,---,0.00,VWS V13.01,2013-02-23 21:04:00,
2013-02-23 16:05:00,31.0,27.0,30.06,ESE,110,3.0,8.0,85,0.00,,---,0.00,VWS V13.01,2013-02-23 21:05:00,
2013-02-23 16:08:00,31.0,27.0,30.06,SE,124,5.0,8.0,85,0.00,,---,0.00,VWS V13.01,2013-02-23 21:08:00,
2013-02-23 16:09:00,31.0,27.0,30.06,East,98,9.0,9.0,85,0.00,,---,0.00,VWS V13.01,2013-02-23 21:09:00,
2013-02-23 16:10:00,31.0,27.0,30.06,ESE,113,5.0,9.0,85,0.00,,---,0.00,VWS V13.01,2013-02-23 21:10:00,
2013-02-23 16:13:00,31.0,27.0,30.06,East,98,0.0,9.0,85,0.00,,---,0.00,VWS V13.01,2013-02-23 21:13:00,
2013-02-23 16:14:00,31.0,27.0,30.06,SE,134,7.0,9.0,85,0.00,,---,0.00,VWS V13.01,2013-02-23 21:14:00,
2013-02-23 16:15:00,31.0,27.0,30.06,ESE,119,2.0,9.0,85,0.00,,---,0.00,VWS V13.01,2013-02-23 21:15:00,
2013-02-23 16:18:00,31.0,27.0,30.06,ESE,102,5.0,14.0,85,0.00,,---,0.00,VWS V13.01,2013-02-23 21:18:00,
2013-02-23 16:19:00,31.0,27.0,30.06,ENE,72,4.0,14.0,85,0.00,,---,0.00,VWS V13.01,2013-02-23 21:19:00,
2013-02-23 16:20:00,31.0,27.0,30.06,SSE,167,4.0,14.0,85,0.00,,---,0.00,VWS V13.01,2013-02-23 21:20:00,
2013-02-23 16:23:00,31.0,27.0,30.06,ESE,122,5.0,14.0,85,0.00,,---,0.00,VWS V13.01,2013-02-23 21:23:00,
2013-02-23 16:24:00,31.0,27.0,30.06,SE,131,2.0,14.0,85,0.00,,---,0.00,VWS V13.01,2013-02-23 21:24:00,
2013-02-23 16:25:00,31.0,27.0,30.06,SE,133,2.0,14.0,85,0.00,,---,0.00,VWS V13.01,2013-02-23 21:25:00,
2013-02-23 16:28:00,31.0,27.0,30.06,East,98,4.0,6.0,85,0.00,,---,0.00,VWS V13.01,2013-02-23 21:28:00,
2013-02-23 16:29:00,31.0,27.0,30.06,ENE,72,3.0,10.0,85,0.00,,---,0.00,VWS V13.01,2013-02-23 21:29:00,
2013-02-23 16:31:00,31.0,27.0,30.06,ESE,114,3.0,10.0,85,0.00,,---,0.00,VWS V13.01,2013-02-23 21:31:00,
2013-02-23 16:33:00,31.0,27.0,30.06,East,89,5.0,10.0,85,0.00,,---,0.00,VWS V13.01,2013-02-23 21:33:00,
2013-02-23 16:34:00,31.0,27.3,30.06,SE,124,7.0,10.0,86,0.00,,---,0.00,VWS V13.01,2013-02-23 21:34:00,
2013-02-23 16:36:00,30.9,27.2,30.06,SE,127,2.0,10.0,86,0.00,,---,0.00,VWS V13.01,2013-02-23 21:36:00,
2013-02-23 16:38:00,30.9,27.2,30.06,East,100,4.0,10.0,86,0.00,,---,0.00,VWS V13.01,2013-02-23 21:38:00,
2013-02-23 16:40:00,30.9,27.2,30.06,ESE,123,6.0,10.0,86,0.00,,---,0.00,VWS V13.01,2013-02-23 21:40:00,
2013-02-23 16:41:00,30.7,27.0,30.06,ESE,117,3.0,10.0,86,0.00,,---,0.00,VWS V13.01,2013-02-23 21:41:00,
2013-02-23 16:43:00,30.7,27.3,30.06,ESE,117,2.0,10.0,87,0.00,,---,0.00,VWS V13.01,2013-02-23 21:43:00,
2013-02-23 16:45:00,30.7,27.3,30.06,ESE,117,1.0,10.0,87,0.00,,---,0.00,VWS V13.01,2013-02-23 21:45:00,
2013-02-23 16:46:00,30.7,27.3,30.06,ESE,117,0.0,10.0,87,0.00,,---,0.00,VWS V13.01,2013-02-23 21:46:00,
2013-02-23 16:48:00,30.7,27.3,30.06,ESE,117,2.0,10.0,87,0.00,,---,0.00,VWS V13.01,2013-02-23 21:48:00,
2013-02-23 16:50:00,30.7,27.3,30.06,ESE,117,3.0,10.0,87,0.00,,---,0.00,VWS V13.01,2013-02-23 21:50:00,
2013-02-23 16:51:00,30.7,27.3,30.06,ESE,117,0.0,10.0,87,0.00,,---,0.00,VWS V13.01,2013-02-23 21:51:00,
2013-02-23 16:54:00,30.7,27.3,30.06,SE,127,2.0,10.0,87,0.00,,---,0.00,VWS V13.01,2013-02-23 21:54:00,
2013-02-23 16:55:00,30.7,27.3,30.05,SE,125,2.0,10.0,87,0.00,,---,0.00,VWS V13.01,2013-02-23 21:55:00,
2013-02-23 16:56:00,30.7,27.3,30.05,ENE,71,2.0,2.0,87,0.00,,---,0.00,VWS V13.01,2013-02-23 21:56:00,
2013-02-23 16:59:00,30.7,27.3,30.05,East,89,4.0,9.0,87,0.00,,---,0.00,VWS V13.01,2013-02-23 21:59:00,
2013-02-23 17:00:00,30.7,27.3,30.05,East,89,0.0,9.0,87,0.00,,---,0.00,VWS V13.01,2013-02-23 22:00:00,
2013-02-23 17:01:00,30.7,27.6,30.05,East,89,0.0,9.0,88,0.00,,---,0.00,VWS V13.01,2013-02-23 22:01:00,
2013-02-23 17:04:00,30.6,27.5,30.05,East,89,0.0,9.0,88,0.00,,---,0.00,VWS V13.01,2013-02-23 22:04:00,
2013-02-23 17:05:00,30.6,27.5,30.05,SSW,205,3.0,9.0,88,0.00,,---,0.00,VWS V13.01,2013-02-23 22:05:00,
2013-02-23 17:06:00,30.6,27.5,30.05,ENE,65,2.0,9.0,88,0.00,,---,0.00,VWS V13.01,2013-02-23 22:06:00,
2013-02-23 17:09:00,30.6,27.5,30.05,ENE,65,0.0,9.0,88,0.00,,---,0.00,VWS V13.01,2013-02-23 22:09:00,
2013-02-23 17:10:00,30.6,27.5,30.05,ENE,65,0.0,9.0,88,0.00,,---,0.00,VWS V13.01,2013-02-23 22:10:00,
2013-02-23 17:11:00,30.6,27.5,30.05,ENE,65,0.0,9.0,88,0.00,,---,0.00,VWS V13.01,2013-02-23 22:11:00,
2013-02-23 17:14:00,30.6,27.5,30.05,ENE,65,0.0,9.0,88,0.00,,---,0.00,VWS V13.01,2013-02-23 22:14:00,
2013-02-23 17:15:00,30.6,27.5,30.05,ENE,65,0.0,9.0,88,0.00,,---,0.00,VWS V13.01,2013-02-23 22:15:00,
2013-02-23 17:17:00,30.6,27.5,30.05,SSE,147,0.0,9.0,88,0.00,,---,0.00,VWS V13.01,2013-02-23 22:17:00,
2013-02-23 17:19:00,30.6,27.5,30.05,SSE,147,0.0,9.0,88,0.00,,---,0.00,VWS V13.01,2013-02-23 22:19:00,
2013-02-23 17:20:00,30.6,27.8,30.05,SSE,147,0.0,9.0,89,0.00,,---,0.00,VWS V13.01,2013-02-23 22:20:00,
2013-02-23 17:22:00,30.6,27.8,30.05,SSE,147,0.0,9.0,89,0.00,,---,0.00,VWS V13.01,2013-02-23 22:22:00,
2013-02-23 17:24:00,30.6,27.8,30.05,SSE,147,1.0,9.0,89,0.00,,---,0.00,VWS V13.01,2013-02-23 22:24:00,
2013-02-23 17:25:00,30.6,27.8,30.05,SE,124,0.0,9.0,89,0.00,,---,0.00,VWS V13.01,2013-02-23 22:25:00,
2013-02-23 17:27:00,30.6,27.8,30.05,SE,124,0.0,0.0,89,0.00,,---,0.00,VWS V13.01,2013-02-23 22:27:00,
2013-02-23 17:29:00,30.6,27.8,30.05,SSE,163,2.0,4.0,89,0.00,,---,0.00,VWS V13.01,2013-02-23 22:29:00,
2013-02-23 17:30:00,30.6,27.8,30.05,SSE,163,2.0,4.0,89,0.00,,---,0.00,VWS V13.01,2013-02-23 22:30:00,
2013-02-23 17:32:00,30.6,27.8,30.05,SSE,163,1.0,4.0,89,0.00,,---,0.00,VWS V13.01,2013-02-23 22:32:00,
2013-02-23 17:34:00,30.6,27.8,30.05,SE,128,0.0,4.0,89,0.00,,---,0.00,VWS V13.01,2013-02-23 22:34:00,
2013-02-23 17:35:00,30.6,27.8,30.05,SE,128,0.0,4.0,89,0.00,,---,0.00,VWS V13.01,2013-02-23 22:35:00,
2013-02-23 17:37:00,30.6,27.8,30.05,SE,135,2.0,4.0,89,0.00,,---,0.00,VWS V13.01,2013-02-23 22:37:00,
2013-02-23 17:40:00,30.6,27.8,30.04,SE,136,0.0,4.0,89,0.00,,---,0.00,VWS V13.01,2013-02-23 22:40:00,
2013-02-23 17:42:00,30.6,27.8,30.04,East,85,2.0,5.0,89,0.00,,---,0.00,VWS V13.01,2013-02-23 22:42:00,
2013-02-23 17:45:00,30.6,27.8,30.04,East,91,2.0,5.0,89,0.00,,---,0.00,VWS V13.01,2013-02-23 22:45:00,
2013-02-23 17:46:00,30.6,27.8,30.04,East,91,2.0,5.0,89,0.00,,---,0.00,VWS V13.01,2013-02-23 22:46:00,
2013-02-23 17:47:00,30.6,27.8,30.04,East,91,0.0,5.0,89,0.00,,---,0.00,VWS V13.01,2013-02-23 22:47:00,
2013-02-23 17:50:00,30.6,27.8,30.04,East,91,0.0,5.0,89,0.00,,---,0.00,VWS V13.01,2013-02-23 22:50:00,
2013-02-23 17:51:00,30.6,27.8,30.04,East,91,0.0,5.0,89,0.00,,---,0.00,VWS V13.01,2013-02-23 22:51:00,
2013-02-23 17:52:00,30.6,27.8,30.04,East,91,0.0,5.0,89,0.00,,---,0.00,VWS V13.01,2013-02-23 22:52:00,
2013-02-23 17:55:00,30.6,27.8,30.04,East,91,0.0,5.0,89,0.00,,---,0.00,VWS V13.01,2013-02-23 22:55:00,
2013-02-23 17:56:00,30.6,27.8,30.04,East,91,0.0,0.0,89,0.00,,---,0.00,VWS V13.01,2013-02-23 22:56:00,
2013-02-23 17:57:00,30.6,27.8,30.04,East,91,0.0,0.0,89,0.00,,---,0.00,VWS V13.01,2013-02-23 22:57:00,
2013-02-23 18:00:00,30.4,27.5,30.04,SE,131,2.0,3.0,89,0.00,,---,0.00,VWS V13.01,2013-02-23 23:00:00,
2013-02-23 18:01:00,30.4,27.5,30.04,SE,131,1.0,3.0,89,0.00,,---,0.00,VWS V13.01,2013-02-23 23:01:00,
2013-02-23 18:03:00,30.4,27.5,30.04,SE,131,0.0,3.0,89,0.00,,---,0.00,VWS V13.01,2013-02-23 23:03:00,
2013-02-23 18:05:00,30.4,27.5,30.04,SE,131,0.0,3.0,89,0.00,,---,0.00,VWS V13.01,2013-02-23 23:05:00,
2013-02-23 18:06:00,30.4,27.5,30.04,SE,131,0.0,3.0,89,0.00,,---,0.00,VWS V13.01,2013-02-23 23:06:00,
2013-02-23 18:08:00,30.4,27.5,30.04,SE,131,0.0,3.0,89,0.00,,---,0.00,VWS V13.01,2013-02-23 23:08:00,
2013-02-23 18:11:00,30.4,27.5,30.04,ESE,119,3.0,4.0,89,0.00,,---,0.00,VWS V13.01,2013-02-23 23:11:00,
2013-02-23 18:13:00,30.4,27.5,30.04,SSE,165,0.0,6.0,89,0.00,,---,0.00,VWS V13.01,2013-02-23 23:13:00,
2013-02-23 18:16:00,30.4,27.5,30.04,SSE,165,0.0,6.0,89,0.00,,---,0.00,VWS V13.01,2013-02-23 23:16:00,
2013-02-23 18:18:00,30.4,27.5,30.04,SSE,165,0.0,6.0,89,0.00,,---,0.00,VWS V13.01,2013-02-23 23:18:00,
2013-02-23 18:21:00,30.4,27.5,30.04,SSE,165,0.0,6.0,89,0.00,,---,0.00,VWS V13.01,2013-02-23 23:21:00,
2013-02-23 18:24:00,30.4,27.5,30.04,SSE,165,0.0,6.0,89,0.00,,---,0.00,VWS V13.01,2013-02-23 23:24:00,
2013-02-23 18:26:00,30.4,27.5,30.04,SSE,165,0.0,0.0,89,0.00,,---,0.00,VWS V13.01,2013-02-23 23:26:00,
2013-02-23 18:27:00,30.4,27.5,30.04,SSE,165,0.0,0.0,89,0.00,,---,0.00,VWS V13.01,2013-02-23 23:27:00,
2013-02-23 18:29:00,30.4,27.8,30.04,SSE,165,0.0,0.0,90,0.00,,---,0.00,VWS V13.01,2013-02-23 23:29:00,
2013-02-23 18:31:00,30.4,27.8,30.04,SSE,165,1.0,1.0,90,0.00,,---,0.00,VWS V13.01,2013-02-23 23:31:00,
2013-02-23 18:32:00,30.4,27.8,30.04,SSE,165,1.0,2.0,90,0.00,,---,0.00,VWS V13.01,2013-02-23 23:32:00,
2013-02-23 18:34:00,30.4,27.8,30.04,SSE,165,1.0,2.0,90,0.00,,---,0.00,VWS V13.01,2013-02-23 23:34:00,
2013-02-23 18:36:00,30.4,27.8,30.04,SSE,165,0.0,2.0,90,0.00,,---,0.00,VWS V13.01,2013-02-23 23:36:00,
2013-02-23 18:37:00,30.4,27.8,30.04,SSE,165,0.0,2.0,90,0.00,,---,0.00,VWS V13.01,2013-02-23 23:37:00,
2013-02-23 18:39:00,30.4,27.8,30.04,SSE,165,0.0,2.0,90,0.00,,---,0.00,VWS V13.01,2013-02-23 23:39:00,
2013-02-23 18:41:00,30.4,27.8,30.04,SSE,165,0.0,2.0,90,0.00,,---,0.00,VWS V13.01,2013-02-23 23:41:00,
2013-02-23 18:42:00,30.4,27.8,30.04,SSE,165,0.0,2.0,90,0.00,,---,0.00,VWS V13.01,2013-02-23 23:42:00,
2013-02-23 18:44:00,30.4,27.8,30.04,SSE,165,1.0,3.0,90,0.00,,---,0.00,VWS V13.01,2013-02-23 23:44:00,
2013-02-23 18:46:00,30.4,27.8,30.04,SSE,165,1.0,3.0,90,0.00,,---,0.00,VWS V13.01,2013-02-23 23:46:00,
2013-02-23 18:47:00,30.4,27.8,30.04,SSE,165,0.0,3.0,90,0.00,,---,0.00,VWS V13.01,2013-02-23 23:47:00,
2013-02-23 18:49:00,30.4,27.8,30.04,SSE,165,0.0,3.0,90,0.00,,---,0.00,VWS V13.01,2013-02-23 23:49:00,
2013-02-23 18:51:00,30.4,27.8,30.04,SSE,165,0.0,3.0,90,0.00,,---,0.00,VWS V13.01,2013-02-23 23:51:00,
2013-02-23 18:52:00,30.4,27.8,30.04,SSE,165,0.0,3.0,90,0.00,,---,0.00,VWS V13.01,2013-02-23 23:52:00,
2013-02-23 18:54:00,30.4,27.8,30.04,SSE,165,0.0,3.0,90,0.00,,---,0.00,VWS V13.01,2013-02-23 23:54:00,
2013-02-23 18:56:00,30.3,27.7,30.03,SSE,165,0.0,2.0,90,0.00,,---,0.00,VWS V13.01,2013-02-23 23:56:00,
2013-02-23 18:57:00,30.3,27.7,30.03,SSE,165,0.0,2.0,90,0.00,,---,0.00,VWS V13.01,2013-02-23 23:57:00,
2013-02-23 18:59:00,30.3,27.7,30.03,SSE,165,0.0,2.0,90,0.00,,---,0.00,VWS V13.01,2013-02-23 23:59:00,
2013-02-23 19:01:00,30.3,27.7,30.03,SSE,165,0.0,2.0,90,0.00,,---,0.00,VWS V13.01,2013-02-24 00:01:00,
2013-02-23 19:03:00,30.3,27.7,30.03,ENE,75,0.0,3.0,90,0.00,,---,0.00,VWS V13.01,2013-02-24 00:03:00,
2013-02-23 19:04:00,30.4,27.8,30.03,ENE,75,0.0,3.0,90,0.00,,---,0.00,VWS V13.01,2013-02-24 00:04:00,
2013-02-23 19:06:00,30.3,27.7,30.03,ENE,75,0.0,3.0,90,0.00,,---,0.00,VWS V13.01,2013-02-24 00:06:00,
2013-02-23 19:08:00,30.3,27.7,30.03,ENE,75,0.0,3.0,90,0.00,,---,0.00,VWS V13.01,2013-02-24 00:08:00,
2013-02-23 19:10:00,30.4,27.8,30.03,ENE,75,0.0,3.0,90,0.00,,---,0.00,VWS V13.01,2013-02-24 00:10:00,
2013-02-23 19:11:00,30.3,27.7,30.03,ENE,75,0.0,3.0,90,0.00,,---,0.00,VWS V13.01,2013-02-24 00:11:00,
2013-02-23 19:13:00,30.3,27.7,30.03,ENE,75,0.0,3.0,90,0.00,,---,0.00,VWS V13.01,2013-02-24 00:13:00,
2013-02-23 19:15:00,30.3,27.7,30.03,ENE,75,0.0,3.0,90,0.00,,---,0.00,VWS V13.01,2013-02-24 00:15:00,
2013-02-23 19:16:00,30.3,27.7,30.03,East,83,2.0,3.0,90,0.00,,---,0.00,VWS V13.01,2013-02-24 00:16:00,
2013-02-23 19:17:00,30.3,27.7,30.03,East,83,0.0,3.0,90,0.00,,---,0.00,VWS V13.01,2013-02-24 00:17:00,
2013-02-23 19:18:00,30.3,27.7,30.03,East,83,0.0,3.0,90,0.00,,---,0.00,VWS V13.01,2013-02-24 00:18:00,
2013-02-23 19:20:00,30.3,27.7,30.03,East,83,0.0,3.0,90,0.00,,---,0.00,VWS V13.01,2013-02-24 00:20:00,
2013-02-23 19:22:00,30.3,27.7,30.03,East,83,0.0,3.0,90,0.00,,---,0.00,VWS V13.01,2013-02-24 00:22:00,
2013-02-23 19:23:00,30.3,27.7,30.03,East,83,0.0,3.0,90,0.00,,---,0.00,VWS V13.01,2013-02-24 00:23:00,
2013-02-23 19:26:00,30.3,27.7,30.03,East,83,1.0,1.0,90,0.00,,---,0.00,VWS V13.01,2013-02-24 00:26:00,
2013-02-23 19:27:00,30.3,27.7,30.03,ESE,103,3.0,5.0,90,0.00,,---,0.00,VWS V13.01,2013-02-24 00:27:00,
2013-02-23 19:28:00,30.3,27.7,30.03,SE,134,2.0,5.0,90,0.00,,---,0.00,VWS V13.01,2013-02-24 00:28:00,
2013-02-23 19:31:00,30.3,27.7,30.03,SE,134,0.0,5.0,90,0.00,,---,0.00,VWS V13.01,2013-02-24 00:31:00,
2013-02-23 19:32:00,30.3,27.7,30.03,SE,134,0.0,5.0,90,0.00,,---,0.00,VWS V13.01,2013-02-24 00:32:00,
2013-02-23 19:33:00,30.3,27.7,30.03,SE,134,0.0,5.0,90,0.00,,---,0.00,VWS V13.01,2013-02-24 00:33:00,
2013-02-23 19:36:00,30.3,27.7,30.03,SE,134,0.0,5.0,90,0.00,,---,0.00,VWS V13.01,2013-02-24 00:36:00,
2013-02-23 19:37:00,30.3,27.7,30.03,SE,134,0.0,5.0,90,0.00,,---,0.00,VWS V13.01,2013-02-24 00:37:00,
2013-02-23 19:38:00,30.3,27.7,30.03,SE,134,0.0,5.0,90,0.00,,---,0.00,VWS V13.01,2013-02-24 00:38:00,
2013-02-23 19:41:00,30.3,27.7,30.02,SE,134,0.0,5.0,90,0.00,,---,0.00,VWS V13.01,2013-02-24 00:41:00,
2013-02-23 19:42:00,30.3,27.7,30.02,SE,134,0.0,5.0,90,0.00,,---,0.00,VWS V13.01,2013-02-24 00:42:00,
2013-02-23 19:43:00,30.3,27.7,30.02,SE,134,0.0,5.0,90,0.00,,---,0.00,VWS V13.01,2013-02-24 00:43:00,
2013-02-23 19:46:00,30.3,27.7,30.02,SE,134,0.0,5.0,90,0.00,,---,0.00,VWS V13.01,2013-02-24 00:46:00,
2013-02-23 19:47:00,30.3,27.7,30.02,SE,134,0.0,5.0,90,0.00,,---,0.00,VWS V13.01,2013-02-24 00:47:00,
2013-02-23 19:48:00,30.3,27.7,30.02,SE,134,0.0,5.0,90,0.00,,---,0.00,VWS V13.01,2013-02-24 00:48:00,
2013-02-23 19:51:00,30.3,27.7,30.02,SE,134,0.0,5.0,90,0.00,,---,0.00,VWS V13.01,2013-02-24 00:51:00,
2013-02-23 19:52:00,30.3,27.7,30.02,SE,134,0.0,5.0,90,0.00,,---,0.00,VWS V13.01,2013-02-24 00:52:00,
2013-02-23 19:53:00,30.3,27.7,30.02,SE,134,0.0,5.0,90,0.00,,---,0.00,VWS V13.01,2013-02-24 00:53:00,
2013-02-23 19:56:00,30.3,27.7,30.01,SE,134,0.0,0.0,90,0.00,,---,0.00,VWS V13.01,2013-02-24 00:56:00,
2013-02-23 19:57:00,30.3,28.0,30.01,SE,134,0.0,0.0,91,0.00,,---,0.00,VWS V13.01,2013-02-24 00:57:00,
2013-02-23 19:58:00,30.3,28.0,30.01,SE,134,0.0,0.0,91,0.00,,---,0.00,VWS V13.01,2013-02-24 00:58:00,
2013-02-23 20:01:00,30.3,28.0,30.01,SE,134,0.0,0.0,91,0.00,,---,0.00,VWS V13.01,2013-02-24 01:01:00,
2013-02-23 20:02:00,30.3,28.0,30.01,SE,134,0.0,0.0,91,0.00,,---,0.00,VWS V13.01,2013-02-24 01:02:00,
2013-02-23 20:04:00,30.3,28.0,30.01,SE,134,0.0,0.0,91,0.00,,---,0.00,VWS V13.01,2013-02-24 01:04:00,
2013-02-23 20:06:00,30.1,27.8,30.01,SE,137,0.0,3.0,91,0.00,,---,0.00,VWS V13.01,2013-02-24 01:06:00,
2013-02-23 20:07:00,30.1,27.8,30.01,SE,137,0.0,3.0,91,0.00,,---,0.00,VWS V13.01,2013-02-24 01:07:00,
2013-02-23 20:09:00,30.3,28.0,30.01,SE,137,0.0,3.0,91,0.00,,---,0.00,VWS V13.01,2013-02-24 01:09:00,
2013-02-23 20:11:00,30.3,28.0,30.01,SE,137,0.0,3.0,91,0.00,,---,0.00,VWS V13.01,2013-02-24 01:11:00,
2013-02-23 20:12:00,30.3,28.0,30.01,SE,137,0.0,3.0,91,0.00,,---,0.00,VWS V13.01,2013-02-24 01:12:00,
2013-02-23 20:14:00,30.3,28.0,30.01,SE,137,0.0,3.0,91,0.00,,---,0.00,VWS V13.01,2013-02-24 01:14:00,
2013-02-23 20:16:00,30.3,28.0,30.01,SE,137,0.0,3.0,91,0.00,,---,0.00,VWS V13.01,2013-02-24 01:16:00,
2013-02-23 20:17:00,30.3,28.0,30.01,SE,137,0.0,3.0,91,0.00,,---,0.00,VWS V13.01,2013-02-24 01:17:00,
2013-02-23 20:19:00,30.3,28.0,30.01,SE,137,0.0,3.0,91,0.00,,---,0.00,VWS V13.01,2013-02-24 01:19:00,
2013-02-23 20:21:00,30.3,28.0,30.01,SE,137,0.0,3.0,91,0.00,,---,0.00,VWS V13.01,2013-02-24 01:21:00,
2013-02-23 20:22:00,30.3,28.0,30.01,SE,137,0.0,3.0,91,0.00,,---,0.00,VWS V13.01,2013-02-24 01:22:00,
2013-02-23 20:23:00,30.3,28.0,30.01,SE,137,0.0,3.0,91,0.00,,---,0.00,VWS V13.01,2013-02-24 01:23:00,
2013-02-23 20:24:00,30.3,28.0,30.01,SE,137,0.0,3.0,91,0.00,,---,0.00,VWS V13.01,2013-02-24 01:24:00,
2013-02-23 20:26:00,30.1,27.8,30.01,SE,137,0.0,0.0,91,0.00,,---,0.00,VWS V13.01,2013-02-24 01:26:00,
2013-02-23 20:27:00,30.1,27.8,30.01,SE,137,0.0,0.0,91,0.00,,---,0.00,VWS V13.01,2013-02-24 01:27:00,
2013-02-23 20:28:00,30.1,27.8,30.01,SE,137,0.0,0.0,91,0.00,,---,0.00,VWS V13.01,2013-02-24 01:28:00,
2013-02-23 20:29:00,30.1,27.8,30.01,SE,137,0.0,0.0,91,0.00,,---,0.00,VWS V13.01,2013-02-24 01:29:00,
2013-02-23 20:32:00,30.1,27.8,30.01,SE,137,0.0,0.0,91,0.00,,---,0.00,VWS V13.01,2013-02-24 01:32:00,
2013-02-23 20:33:00,30.1,27.8,30.01,SE,137,0.0,2.0,91,0.00,,---,0.00,VWS V13.01,2013-02-24 01:33:00,
2013-02-23 20:34:00,30.1,27.8,30.01,SE,137,0.0,2.0,91,0.00,,---,0.00,VWS V13.01,2013-02-24 01:34:00,
2013-02-23 20:37:00,30.1,27.8,30.01,SE,137,0.0,2.0,91,0.00,,---,0.00,VWS V13.01,2013-02-24 01:37:00,
2013-02-23 20:38:00,30.1,27.8,30.01,SE,137,0.0,3.0,91,0.00,,---,0.00,VWS V13.01,2013-02-24 01:38:00,
2013-02-23 20:39:00,30.1,27.8,30.01,SE,137,0.0,3.0,91,0.00,,---,0.00,VWS V13.01,2013-02-24 01:39:00,
2013-02-23 20:42:00,30.3,28.3,30.01,SE,137,4.0,4.0,92,0.00,,---,0.00,VWS V13.01,2013-02-24 01:42:00,
2013-02-23 20:43:00,30.3,28.3,30.01,SE,137,0.0,4.0,92,0.00,,---,0.00,VWS V13.01,2013-02-24 01:43:00,
2013-02-23 20:44:00,30.3,28.3,30.01,SE,137,0.0,4.0,92,0.00,,---,0.00,VWS V13.01,2013-02-24 01:44:00,
2013-02-23 20:47:00,30.3,28.3,30.01,SE,137,0.0,4.0,92,0.00,,---,0.00,VWS V13.01,2013-02-24 01:47:00,
2013-02-23 20:48:00,30.3,28.3,30.01,SE,137,1.0,4.0,92,0.00,,---,0.00,VWS V13.01,2013-02-24 01:48:00,
2013-02-23 20:49:00,30.3,28.3,30.01,SE,137,1.0,4.0,92,0.00,,---,0.00,VWS V13.01,2013-02-24 01:49:00,
2013-02-23 20:52:00,30.3,28.3,30.01,SE,137,0.0,4.0,92,0.00,,---,0.00,VWS V13.01,2013-02-24 01:52:00,
2013-02-23 20:53:00,30.3,28.3,30.01,SE,137,0.0,4.0,92,0.00,,---,0.00,VWS V13.01,2013-02-24 01:53:00,
2013-02-23 20:55:00,30.3,28.3,30.01,SE,137,1.0,4.0,92,0.00,,---,0.00,VWS V13.01,2013-02-24 01:55:00,
2013-02-23 20:57:00,30.3,28.0,30.01,ESE,102,0.0,3.0,91,0.00,,---,0.00,VWS V13.01,2013-02-24 01:57:00,
2013-02-23 20:58:00,30.3,28.0,30.01,ESE,102,2.0,3.0,91,0.00,,---,0.00,VWS V13.01,2013-02-24 01:58:00,
2013-02-23 21:00:00,30.3,28.0,30.01,ESE,102,0.0,3.0,91,0.00,,---,0.00,VWS V13.01,2013-02-24 02:00:00,
2013-02-23 21:02:00,30.3,28.0,30.01,ESE,102,1.0,3.0,91,0.00,,---,0.00,VWS V13.01,2013-02-24 02:02:00,
2013-02-23 21:03:00,30.3,28.0,30.01,ESE,102,1.0,3.0,91,0.00,,---,0.00,VWS V13.01,2013-02-24 02:03:00,
2013-02-23 21:05:00,30.3,28.0,30.01,ESE,102,0.0,3.0,91,0.00,,---,0.00,VWS V13.01,2013-02-24 02:05:00,
2013-02-23 21:08:00,30.3,28.0,30.01,ESE,102,0.0,3.0,91,0.00,,---,0.00,VWS V13.01,2013-02-24 02:08:00,
2013-02-23 21:10:00,30.3,28.0,30.00,ESE,102,0.0,3.0,91,0.00,,---,0.00,VWS V13.01,2013-02-24 02:10:00,
2013-02-23 21:13:00,30.3,28.3,30.00,ESE,102,0.0,3.0,92,0.00,,---,0.00,VWS V13.01,2013-02-24 02:13:00,
2013-02-23 21:14:00,30.1,28.1,30.00,ESE,102,0.0,3.0,92,0.00,,---,0.00,VWS V13.01,2013-02-24 02:14:00,
2013-02-23 21:15:00,30.1,28.1,30.00,ESE,102,0.0,3.0,92,0.00,,---,0.00,VWS V13.01,2013-02-24 02:15:00,
2013-02-23 21:18:00,30.1,27.8,30.00,ESE,102,0.0,3.0,91,0.00,,---,0.00,VWS V13.01,2013-02-24 02:18:00,
2013-02-23 21:19:00,30.1,27.8,30.00,ESE,102,0.0,3.0,91,0.00,,---,0.00,VWS V13.01,2013-02-24 02:19:00,
2013-02-23 21:20:00,30.1,27.8,30.00,ESE,102,0.0,3.0,91,0.00,,---,0.00,VWS V13.01,2013-02-24 02:20:00,
2013-02-23 21:23:00,30.1,28.1,30.00,ESE,102,0.0,3.0,92,0.00,,---,0.00,VWS V13.01,2013-02-24 02:23:00,
2013-02-23 21:24:00,30.1,28.1,30.00,ESE,102,0.0,3.0,92,0.00,,---,0.00,VWS V13.01,2013-02-24 02:24:00,
2013-02-23 21:25:00,30.1,28.1,30.00,ESE,102,0.0,3.0,92,0.00,,---,0.00,VWS V13.01,2013-02-24 02:25:00,
2013-02-23 21:28:00,30.1,28.1,30.00,ESE,102,0.0,0.0,92,0.00,,---,0.00,VWS V13.01,2013-02-24 02:28:00,
2013-02-23 21:29:00,30.1,28.1,30.00,ESE,102,0.0,0.0,92,0.00,,---,0.00,VWS V13.01,2013-02-24 02:29:00,
2013-02-23 21:30:00,30.1,28.1,30.00,ESE,102,0.0,0.0,92,0.00,,---,0.00,VWS V13.01,2013-02-24 02:30:00,
2013-02-23 21:33:00,30.1,28.1,30.00,ESE,102,0.0,0.0,92,0.00,,---,0.00,VWS V13.01,2013-02-24 02:33:00,
2013-02-23 21:34:00,30.1,28.1,30.00,ESE,102,0.0,0.0,92,0.00,,---,0.00,VWS V13.01,2013-02-24 02:34:00,
2013-02-23 21:35:00,30.1,28.1,30.00,ESE,102,0.0,0.0,92,0.00,,---,0.00,VWS V13.01,2013-02-24 02:35:00,
2013-02-23 21:39:00,30.0,28.0,30.00,ESE,102,0.0,0.0,92,0.00,,---,0.00,VWS V13.01,2013-02-24 02:39:00,
2013-02-23 21:40:00,30.0,28.0,30.00,ESE,102,0.0,0.0,92,0.00,,---,0.00,VWS V13.01,2013-02-24 02:40:00,
2013-02-23 21:44:00,30.0,28.0,30.00,ESE,102,2.0,2.0,92,0.00,,---,0.00,VWS V13.01,2013-02-24 02:44:00,
2013-02-23 21:45:00,30.1,28.1,30.00,ESE,102,0.0,3.0,92,0.00,,---,0.00,VWS V13.01,2013-02-24 02:45:00,
2013-02-23 21:49:00,30.1,28.1,30.00,ESE,102,0.0,3.0,92,0.00,,---,0.00,VWS V13.01,2013-02-24 02:49:00,
2013-02-23 21:50:00,30.1,28.1,30.00,ESE,102,0.0,3.0,92,0.00,,---,0.00,VWS V13.01,2013-02-24 02:50:00,
2013-02-23 21:54:00,30.1,28.1,30.00,ESE,103,0.0,3.0,92,0.00,,---,0.00,VWS V13.01,2013-02-24 02:54:00,
2013-02-23 21:55:00,30.1,28.1,29.99,ESE,103,0.0,0.0,92,0.00,,---,0.00,VWS V13.01,2013-02-24 02:55:00,
2013-02-23 21:59:00,30.1,28.1,29.99,East,93,1.0,3.0,92,0.00,,---,0.00,VWS V13.01,2013-02-24 02:59:00,
2013-02-23 22:00:00,30.3,28.3,29.99,ESE,115,3.0,7.0,92,0.00,,---,0.00,VWS V13.01,2013-02-24 03:00:00,
2013-02-23 22:04:00,30.3,28.3,29.99,ESE,115,2.0,7.0,92,0.00,,---,0.00,VWS V13.01,2013-02-24 03:04:00,
2013-02-23 22:05:00,30.3,28.3,29.99,East,80,2.0,7.0,92,0.00,,---,0.00,VWS V13.01,2013-02-24 03:05:00,
2013-02-23 22:09:00,30.3,28.3,29.99,East,94,0.0,7.0,92,0.00,,---,0.00,VWS V13.01,2013-02-24 03:09:00,
2013-02-23 22:10:00,30.3,28.3,29.98,East,98,2.0,7.0,92,0.00,,---,0.00,VWS V13.01,2013-02-24 03:10:00,
2013-02-23 22:14:00,30.4,28.4,29.98,SSE,162,3.0,7.0,92,0.00,,---,0.00,VWS V13.01,2013-02-24 03:14:00,
2013-02-23 22:15:00,30.4,28.4,29.98,SE,132,2.0,7.0,92,0.00,,---,0.00,VWS V13.01,2013-02-24 03:15:00,
2013-02-23 22:16:00,30.4,28.4,29.98,SE,132,3.0,7.0,92,0.00,,---,0.00,VWS V13.01,2013-02-24 03:16:00,
2013-02-23 22:19:00,30.4,28.4,29.98,ESE,116,1.0,7.0,92,0.00,,---,0.00,VWS V13.01,2013-02-24 03:19:00,
2013-02-23 22:20:00,30.4,28.4,29.98,ESE,116,1.0,7.0,92,0.00,,---,0.00,VWS V13.01,2013-02-24 03:20:00,
2013-02-23 22:21:00,30.4,28.4,29.98,ESE,116,1.0,7.0,92,0.00,,---,0.00,VWS V13.01,2013-02-24 03:21:00,
2013-02-23 22:24:00,30.4,28.4,29.98,SE,134,3.0,7.0,92,0.00,,---,0.00,VWS V13.01,2013-02-24 03:24:00,
2013-02-23 22:25:00,30.4,28.4,29.98,SE,130,4.0,7.0,92,0.00,,---,0.00,VWS V13.01,2013-02-24 03:25:00,
2013-02-23 22:26:00,30.4,28.4,29.98,ESE,113,4.0,5.0,92,0.00,,---,0.00,VWS V13.01,2013-02-24 03:26:00,
2013-02-23 22:29:00,30.3,28.3,29.98,ESE,122,0.0,5.0,92,0.00,,---,0.00,VWS V13.01,2013-02-24 03:29:00,
2013-02-23 22:30:00,30.4,28.4,29.98,ESE,122,1.0,5.0,92,0.00,,---,0.00,VWS V13.01,2013-02-24 03:30:00,
2013-02-23 22:31:00,30.3,28.3,29.98,ESE,122,1.0,5.0,92,0.00,,---,0.00,VWS V13.01,2013-02-24 03:31:00,
2013-02-23 22:34:00,30.3,28.3,29.98,ESE,122,0.0,5.0,92,0.00,,---,0.00,VWS V13.01,2013-02-24 03:34:00,
2013-02-23 22:35:00,30.3,28.3,29.98,ESE,122,0.0,5.0,92,0.00,,---,0.00,VWS V13.01,2013-02-24 03:35:00,
2013-02-23 22:36:00,30.3,28.3,29.98,ESE,122,1.0,5.0,92,0.00,,---,0.00,VWS V13.01,2013-02-24 03:36:00,
2013-02-23 22:40:00,30.3,28.3,29.97,ESE,122,0.0,5.0,92,0.00,,---,0.00,VWS V13.01,2013-02-24 03:40:00,
2013-02-23 22:41:00,30.3,28.3,29.97,ESE,122,1.0,5.0,92,0.00,,---,0.00,VWS V13.01,2013-02-24 03:41:00,
2013-02-23 22:45:00,30.3,28.3,29.97,ESE,122,0.0,5.0,92,0.00,,---,0.00,VWS V13.01,2013-02-24 03:45:00,
2013-02-23 22:46:00,30.3,28.3,29.97,ESE,122,0.0,5.0,92,0.00,,---,0.00,VWS V13.01,2013-02-24 03:46:00,
2013-02-23 22:50:00,30.1,28.1,29.97,ESE,122,0.0,5.0,92,0.00,,---,0.00,VWS V13.01,2013-02-24 03:50:00,
2013-02-23 22:51:00,30.1,28.1,29.97,ESE,122,0.0,5.0,92,0.00,,---,0.00,VWS V13.01,2013-02-24 03:51:00,
2013-02-23 22:55:00,30.1,28.1,29.97,ESE,122,0.0,5.0,92,0.00,,---,0.00,VWS V13.01,2013-02-24 03:55:00,
2013-02-23 22:56:00,30.1,28.1,29.97,ESE,122,0.0,0.0,92,0.00,,---,0.00,VWS V13.01,2013-02-24 03:56:00,
2013-02-23 23:00:00,30.1,28.1,29.97,ESE,122,0.0,2.0,92,0.00,,---,0.00,VWS V13.01,2013-02-24 04:00:00,
2013-02-23 23:01:00,30.1,28.1,29.97,ESE,122,0.0,2.0,92,0.00,,---,0.00,VWS V13.01,2013-02-24 04:01:00,
2013-02-23 23:05:00,30.1,28.1,29.97,ESE,122,0.0,2.0,92,0.00,,---,0.00,VWS V13.01,2013-02-24 04:05:00,
2013-02-23 23:06:00,30.1,28.1,29.97,ESE,122,0.0,2.0,92,0.00,,---,0.00,VWS V13.01,2013-02-24 04:06:00,
2013-02-23 23:10:00,30.1,28.1,29.96,ESE,122,0.0,2.0,92,0.00,,---,0.00,VWS V13.01,2013-02-24 04:10:00,
2013-02-23 23:11:00,30.1,28.1,29.96,ESE,122,0.0,2.0,92,0.00,,---,0.00,VWS V13.01,2013-02-24 04:11:00,
2013-02-23 23:15:00,30.1,28.1,29.96,ESE,122,2.0,2.0,92,0.00,,---,0.00,VWS V13.01,2013-02-24 04:15:00,
2013-02-23 23:16:00,30.1,28.1,29.96,ESE,122,0.0,2.0,92,0.00,,---,0.00,VWS V13.01,2013-02-24 04:16:00,
2013-02-23 23:20:00,30.1,28.1,29.96,ESE,122,0.0,2.0,92,0.00,,---,0.00,VWS V13.01,2013-02-24 04:20:00,
2013-02-23 23:21:00,30.1,28.1,29.96,ESE,122,0.0,2.0,92,0.00,,---,0.00,VWS V13.01,2013-02-24 04:21:00,
2013-02-23 23:25:00,30.1,28.1,29.96,ESE,122,0.0,2.0,92,0.00,,---,0.00,VWS V13.01,2013-02-24 04:25:00,
2013-02-23 23:26:00,30.1,28.1,29.96,ESE,122,0.0,0.0,92,0.00,,---,0.00,VWS V13.01,2013-02-24 04:26:00,
2013-02-23 23:31:00,30.1,28.1,29.96,ESE,122,0.0,1.0,92,0.00,,---,0.00,VWS V13.01,2013-02-24 04:31:00,
2013-02-23 23:32:00,30.1,28.1,29.96,ESE,122,0.0,1.0,92,0.00,,---,0.00,VWS V13.01,2013-02-24 04:32:00,
2013-02-23 23:36:00,30.1,28.1,29.96,ESE,122,0.0,1.0,92,0.00,,---,0.00,VWS V13.01,2013-02-24 04:36:00,
2013-02-23 23:37:00,30.1,28.1,29.96,ESE,122,0.0,1.0,92,0.00,,---,0.00,VWS V13.01,2013-02-24 04:37:00,
2013-02-23 23:41:00,30.1,28.1,29.96,ESE,122,0.0,1.0,92,0.00,,---,0.00,VWS V13.01,2013-02-24 04:41:00,
2013-02-23 23:42:00,30.1,28.1,29.96,ESE,122,0.0,1.0,92,0.00,,---,0.00,VWS V13.01,2013-02-24 04:42:00,
2013-02-23 23:46:00,30.1,28.1,29.96,ESE,122,0.0,1.0,92,0.00,,---,0.00,VWS V13.01,2013-02-24 04:46:00,
2013-02-23 23:47:00,30.1,28.1,29.96,ESE,122,0.0,1.0,92,0.00,,---,0.00,VWS V13.01,2013-02-24 04:47:00,
2013-02-23 23:51:00,30.0,28.0,29.96,ESE,122,0.0,1.0,92,0.00,,---,0.00,VWS V13.01,2013-02-24 04:51:00,
2013-02-23 23:52:00,30.0,28.0,29.96,ESE,122,0.0,1.0,92,0.00,,---,0.00,VWS V13.01,2013-02-24 04:52:00,
2013-02-23 23:56:00,30.0,28.0,29.95,ESE,122,1.0,1.0,92,0.00,,---,0.00,VWS V13.01,2013-02-24 04:56:00,
2013-02-23 23:57:00,30.0,28.0,29.95,ESE,122,0.0,1.0,92,0.00,,---,0.00,VWS V13.01,2013-02-24 04:57:00,